Time,TemperatureF,DewpointF,PressureIn,WindDirection,WindDirectionDegrees,WindSpeedMPH,WindSpeedGustMPH,Humidity,HourlyPrecipIn,Conditions,Clouds,dailyrainin,SolarRadiationWatts/m^2,SoftwareType,DateUTC
2013-06-27 00:00:00,71.7,67.6,29.76,NW,323,0.0,0.0,87,0.00,,,0.00,0,Wunderground v.1.15,2013-06-27 05:00:00,
2013-06-27 00:03:00,72.0,67.6,29.76,NW,323,0.0,0.0,86,0.00,,,0.00,0,Wunderground v.1.15,2013-06-27 05:03:00,
2013-06-27 00:05:00,72.1,67.7,29.76,NW,323,0.0,0.0,86,0.00,,,0.00,0,Wunderground v.1.15,2013-06-27 05:05:00,
2013-06-27 00:08:00,72.2,67.8,29.75,NW,323,0.0,0.0,86,0.00,,,0.00,0,Wunderground v.1.15,2013-06-27 05:08:00,
2013-06-27 00:09:00,72.1,67.3,29.75,NW,323,0.0,0.0,85,0.00,,,0.00,0,Wunderground v.1.15,2013-06-27 05:09:00,
2013-06-27 00:13:00,72.1,67.7,29.76,NW,323,0.0,0.0,86,0.00,,,0.00,0,Wunderground v.1.15,2013-06-27 05:13:00,
2013-06-27 00:14:00,72.0,67.6,29.76,NW,323,0.0,0.0,86,0.00,,,0.00,0,Wunderground v.1.15,2013-06-27 05:14:00,
2013-06-27 00:15:00,71.9,67.5,29.76,NW,323,0.0,0.0,86,0.00,,,0.00,0,Wunderground v.1.15,2013-06-27 05:15:00,
2013-06-27 00:16:00,71.9,67.5,29.76,NW,323,0.0,0.0,86,0.00,,,0.00,0,Wunderground v.1.15,2013-06-27 05:16:00,
2013-06-27 00:21:00,71.7,67.3,29.76,NW,323,0.0,0.0,86,0.00,,,0.00,0,Wunderground v.1.15,2013-06-27 05:21:00,
2013-06-27 00:22:00,71.6,67.2,29.76,NW,323,0.0,0.0,86,0.00,,,0.00,0,Wunderground v.1.15,2013-06-27 05:22:00,
2013-06-27 00:23:00,71.6,67.2,29.76,NW,323,0.0,0.0,86,0.00,,,0.00,0,Wunderground v.1.15,2013-06-27 05:23:00,
2013-06-27 00:25:00,71.5,67.1,29.76,NW,323,0.0,0.0,86,0.00,,,0.00,0,Wunderground v.1.15,2013-06-27 05:25:00,
2013-06-27 00:28:00,71.6,67.2,29.76,NW,323,0.0,0.0,86,0.00,,,0.00,0,Wunderground v.1.15,2013-06-27 05:28:00,
2013-06-27 00:29:00,71.6,67.2,29.76,NW,323,0.0,0.0,86,0.00,,,0.00,0,Wunderground v.1.15,2013-06-27 05:29:00,
2013-06-27 00:30:00,71.7,67.3,29.76,NW,323,0.0,0.0,86,0.00,,,0.00,0,Wunderground v.1.15,2013-06-27 05:30:00,
2013-06-27 00:33:00,71.8,67.4,29.76,NW,323,0.0,0.0,86,0.00,,,0.00,0,Wunderground v.1.15,2013-06-27 05:33:00,
2013-06-27 00:34:00,71.7,67.3,29.76,NW,323,0.0,0.0,86,0.00,,,0.00,0,Wunderground v.1.15,2013-06-27 05:34:00,
2013-06-27 00:35:00,71.6,67.5,29.76,NW,323,0.0,0.0,87,0.00,,,0.00,0,Wunderground v.1.15,2013-06-27 05:35:00,
2013-06-27 00:38:00,71.2,67.1,29.76,NW,323,0.0,0.0,87,0.00,,,0.00,0,Wunderground v.1.15,2013-06-27 05:38:00,
2013-06-27 00:40:00,71.1,67.4,29.76,NW,323,0.0,0.0,88,0.00,,,0.00,0,Wunderground v.1.15,2013-06-27 05:40:00,
2013-06-27 00:41:00,71.0,67.3,29.76,NW,323,0.0,0.0,88,0.00,,,0.00,0,Wunderground v.1.15,2013-06-27 05:41:00,
2013-06-27 00:42:00,71.0,67.3,29.76,NW,323,0.0,0.0,88,0.00,,,0.00,0,Wunderground v.1.15,2013-06-27 05:42:00,
2013-06-27 00:44:00,71.0,67.3,29.76,NW,323,0.0,0.0,88,0.00,,,0.00,0,Wunderground v.1.15,2013-06-27 05:44:00,
2013-06-27 00:47:00,70.9,66.8,29.76,NW,323,0.0,0.0,87,0.00,,,0.00,0,Wunderground v.1.15,2013-06-27 05:47:00,
2013-06-27 00:49:00,70.7,66.6,29.76,NW,323,0.0,0.0,87,0.00,,,0.00,0,Wunderground v.1.15,2013-06-27 05:49:00,
2013-06-27 00:50:00,70.7,66.6,29.76,NW,323,0.0,0.0,87,0.00,,,0.00,0,Wunderground v.1.15,2013-06-27 05:50:00,
2013-06-27 00:51:00,70.6,66.9,29.76,NW,323,0.0,0.0,88,0.00,,,0.00,0,Wunderground v.1.15,2013-06-27 05:51:00,
2013-06-27 00:54:00,70.6,66.9,29.76,NW,323,0.0,0.0,88,0.00,,,0.00,0,Wunderground v.1.15,2013-06-27 05:54:00,
2013-06-27 00:55:00,70.5,66.8,29.76,NW,323,0.0,0.0,88,0.00,,,0.00,0,Wunderground v.1.15,2013-06-27 05:55:00,
2013-06-27 00:56:00,70.5,66.8,29.76,NW,323,0.0,0.0,88,0.00,,,0.00,0,Wunderground v.1.15,2013-06-27 05:56:00,
2013-06-27 00:57:00,70.5,66.8,29.76,NW,323,0.0,0.0,88,0.00,,,0.00,0,Wunderground v.1.15,2013-06-27 05:57:00,
2013-06-27 01:02:00,70.5,66.8,29.76,NW,323,0.0,0.0,88,0.00,,,0.00,0,Wunderground v.1.15,2013-06-27 06:02:00,
2013-06-27 01:03:00,70.5,66.8,29.76,NW,323,0.0,0.0,88,0.00,,,0.00,0,Wunderground v.1.15,2013-06-27 06:03:00,
2013-06-27 01:08:00,70.5,66.4,29.77,NW,323,0.0,0.0,87,0.00,,,0.00,0,Wunderground v.1.15,2013-06-27 06:08:00,
2013-06-27 01:09:00,70.5,66.4,29.77,NW,323,0.0,0.0,87,0.00,,,0.00,0,Wunderground v.1.15,2013-06-27 06:09:00,
2013-06-27 01:10:00,70.5,66.4,29.77,NW,323,0.0,0.0,87,0.00,,,0.00,0,Wunderground v.1.15,2013-06-27 06:10:00,
2013-06-27 01:14:00,70.5,66.4,29.76,NW,323,0.0,0.0,87,0.00,,,0.00,0,Wunderground v.1.15,2013-06-27 06:14:00,
2013-06-27 01:16:00,70.6,66.5,29.77,NW,323,0.0,0.0,87,0.00,,,0.00,0,Wunderground v.1.15,2013-06-27 06:16:00,
2013-06-27 01:18:00,70.6,66.5,29.77,NW,323,0.0,0.0,87,0.00,,,0.00,0,Wunderground v.1.15,2013-06-27 06:18:00,
2013-06-27 01:21:00,70.6,66.5,29.77,NW,323,0.0,0.0,87,0.00,,,0.00,0,Wunderground v.1.15,2013-06-27 06:21:00,
2013-06-27 01:23:00,70.5,66.4,29.77,NW,323,0.0,0.0,87,0.00,,,0.00,0,Wunderground v.1.15,2013-06-27 06:23:00,
2013-06-27 01:25:00,70.5,66.4,29.77,NW,323,0.0,0.0,87,0.00,,,0.00,0,Wunderground v.1.15,2013-06-27 06:25:00,
2013-06-27 01:27:00,70.4,66.3,29.77,NW,323,0.0,0.0,87,0.00,,,0.00,0,Wunderground v.1.15,2013-06-27 06:27:00,
2013-06-27 01:31:00,70.3,66.2,29.77,NW,323,0.0,0.0,87,0.00,,,0.00,0,Wunderground v.1.15,2013-06-27 06:31:00,
2013-06-27 01:32:00,70.2,66.5,29.77,NW,323,2.0,2.0,88,0.00,,,0.00,0,Wunderground v.1.15,2013-06-27 06:32:00,
2013-06-27 01:33:00,70.2,66.5,29.77,NW,323,1.0,2.0,88,0.00,,,0.00,0,Wunderground v.1.15,2013-06-27 06:33:00,
2013-06-27 01:35:00,70.2,66.5,29.77,NW,323,0.0,2.0,88,0.00,,,0.00,0,Wunderground v.1.15,2013-06-27 06:35:00,
2013-06-27 01:36:00,70.2,66.1,29.77,NW,323,0.0,2.0,87,0.00,,,0.00,0,Wunderground v.1.15,2013-06-27 06:36:00,
2013-06-27 01:37:00,70.1,66.0,29.77,NW,323,1.0,2.0,87,0.00,,,0.00,0,Wunderground v.1.15,2013-06-27 06:37:00,
2013-06-27 01:39:00,70.1,66.0,29.77,NW,323,2.0,2.0,87,0.00,,,0.00,0,Wunderground v.1.15,2013-06-27 06:39:00,
2013-06-27 01:40:00,70.1,66.4,29.77,NW,323,2.0,2.0,88,0.00,,,0.00,0,Wunderground v.1.15,2013-06-27 06:40:00,
2013-06-27 01:41:00,70.0,66.3,29.77,NW,323,2.0,2.0,88,0.00,,,0.00,0,Wunderground v.1.15,2013-06-27 06:41:00,
2013-06-27 01:45:00,69.8,66.1,29.77,NW,323,0.0,2.0,88,0.00,,,0.00,0,Wunderground v.1.15,2013-06-27 06:45:00,
2013-06-27 01:46:00,69.7,66.0,29.77,NW,323,0.0,2.0,88,0.00,,,0.00,0,Wunderground v.1.15,2013-06-27 06:46:00,
2013-06-27 01:48:00,69.6,65.9,29.76,NW,323,0.0,2.0,88,0.00,,,0.00,0,Wunderground v.1.15,2013-06-27 06:48:00,
2013-06-27 01:50:00,69.5,65.8,29.76,NW,323,0.0,1.0,88,0.00,,,0.00,0,Wunderground v.1.15,2013-06-27 06:50:00,
2013-06-27 01:51:00,69.4,65.7,29.76,NW,323,0.0,1.0,88,0.00,,,0.00,0,Wunderground v.1.15,2013-06-27 06:51:00,
2013-06-27 01:52:00,69.4,65.7,29.76,NW,323,0.0,1.0,88,0.00,,,0.00,0,Wunderground v.1.15,2013-06-27 06:52:00,
2013-06-27 01:55:00,69.5,66.1,29.77,NW,323,0.0,1.0,89,0.00,,,0.00,0,Wunderground v.1.15,2013-06-27 06:55:00,
2013-06-27 01:57:00,69.4,66.0,29.77,NW,323,0.0,1.0,89,0.00,,,0.00,0,Wunderground v.1.15,2013-06-27 06:57:00,
2013-06-27 02:00:00,69.0,65.6,29.77,NW,323,0.0,0.0,89,0.00,,,0.00,0,Wunderground v.1.15,2013-06-27 07:00:00,
2013-06-27 02:01:00,68.8,65.4,29.77,NW,323,0.0,0.0,89,0.00,,,0.00,0,Wunderground v.1.15,2013-06-27 07:01:00,
2013-06-27 02:03:00,68.6,65.5,29.77,NW,323,0.0,0.0,90,0.00,,,0.00,0,Wunderground v.1.15,2013-06-27 07:03:00,
2013-06-27 02:06:00,68.4,65.7,29.77,NW,323,0.0,0.0,91,0.00,,,0.00,0,Wunderground v.1.15,2013-06-27 07:06:00,
2013-06-27 02:07:00,68.4,65.4,29.77,NW,323,0.0,0.0,90,0.00,,,0.00,0,Wunderground v.1.15,2013-06-27 07:07:00,
2013-06-27 02:08:00,68.3,65.6,29.77,NW,323,0.0,0.0,91,0.00,,,0.00,0,Wunderground v.1.15,2013-06-27 07:08:00,
2013-06-27 02:09:00,68.2,65.5,29.77,NW,323,0.0,0.0,91,0.00,,,0.00,0,Wunderground v.1.15,2013-06-27 07:09:00,
2013-06-27 02:13:00,67.9,65.5,29.77,NW,323,0.0,0.0,92,0.00,,,0.00,0,Wunderground v.1.15,2013-06-27 07:13:00,
2013-06-27 02:14:00,67.8,65.4,29.77,NW,323,0.0,0.0,92,0.00,,,0.00,0,Wunderground v.1.15,2013-06-27 07:14:00,
2013-06-27 02:15:00,67.8,65.4,29.77,NW,323,0.0,0.0,92,0.00,,,0.00,0,Wunderground v.1.15,2013-06-27 07:15:00,
2013-06-27 02:17:00,67.9,65.5,29.77,NW,323,0.0,0.0,92,0.00,,,0.00,0,Wunderground v.1.15,2013-06-27 07:17:00,
2013-06-27 02:18:00,67.9,65.5,29.77,NW,323,0.0,0.0,92,0.00,,,0.00,0,Wunderground v.1.15,2013-06-27 07:18:00,
2013-06-27 02:19:00,67.9,65.5,29.77,NW,323,0.0,0.0,92,0.00,,,0.00,0,Wunderground v.1.15,2013-06-27 07:19:00,
2013-06-27 02:21:00,68.0,65.6,29.77,NW,323,0.0,0.0,92,0.00,,,0.00,0,Wunderground v.1.15,2013-06-27 07:21:00,
2013-06-27 02:23:00,68.1,65.7,29.77,NW,323,0.0,0.0,92,0.00,,,0.00,0,Wunderground v.1.15,2013-06-27 07:23:00,
2013-06-27 02:24:00,68.1,65.7,29.77,NW,323,0.0,0.0,92,0.00,,,0.00,0,Wunderground v.1.15,2013-06-27 07:24:00,
2013-06-27 02:25:00,67.9,65.2,29.77,NW,323,0.0,0.0,91,0.00,,,0.00,0,Wunderground v.1.15,2013-06-27 07:25:00,
2013-06-27 02:26:00,67.8,65.1,29.77,NW,323,0.0,0.0,91,0.00,,,0.00,0,Wunderground v.1.15,2013-06-27 07:26:00,
2013-06-27 02:29:00,67.2,64.8,29.77,NW,323,0.0,0.0,92,0.00,,,0.00,0,Wunderground v.1.15,2013-06-27 07:29:00,
2013-06-27 02:30:00,67.1,64.7,29.77,NW,323,0.0,0.0,92,0.00,,,0.00,0,Wunderground v.1.15,2013-06-27 07:30:00,
2013-06-27 02:31:00,66.9,64.5,29.77,NW,323,0.0,0.0,92,0.00,,,0.00,0,Wunderground v.1.15,2013-06-27 07:31:00,
2013-06-27 02:32:00,66.9,64.5,29.77,NW,323,0.0,0.0,92,0.00,,,0.00,0,Wunderground v.1.15,2013-06-27 07:32:00,
2013-06-27 02:35:00,66.9,64.8,29.77,NW,323,0.0,0.0,93,0.00,,,0.00,0,Wunderground v.1.15,2013-06-27 07:35:00,
2013-06-27 02:36:00,67.0,64.9,29.77,NW,323,0.0,0.0,93,0.00,,,0.00,0,Wunderground v.1.15,2013-06-27 07:36:00,
2013-06-27 02:37:00,67.0,64.9,29.77,NW,323,0.0,0.0,93,0.00,,,0.00,0,Wunderground v.1.15,2013-06-27 07:37:00,
2013-06-27 02:39:00,66.9,64.8,29.77,NW,323,0.0,0.0,93,0.00,,,0.00,0,Wunderground v.1.15,2013-06-27 07:39:00,
2013-06-27 02:40:00,66.8,64.7,29.77,NW,323,0.0,0.0,93,0.00,,,0.00,0,Wunderground v.1.15,2013-06-27 07:40:00,
2013-06-27 02:43:00,66.6,64.5,29.77,NW,323,0.0,0.0,93,0.00,,,0.00,0,Wunderground v.1.15,2013-06-27 07:43:00,
2013-06-27 02:45:00,66.5,64.4,29.77,NW,323,0.0,0.0,93,0.00,,,0.00,0,Wunderground v.1.15,2013-06-27 07:45:00,
2013-06-27 02:46:00,66.3,64.2,29.77,NW,323,0.0,0.0,93,0.00,,,0.00,0,Wunderground v.1.15,2013-06-27 07:46:00,
2013-06-27 02:48:00,66.3,64.5,29.77,NW,323,0.0,0.0,94,0.00,,,0.00,0,Wunderground v.1.15,2013-06-27 07:48:00,
2013-06-27 02:50:00,66.8,65.0,29.77,NW,323,0.0,0.0,94,0.00,,,0.00,0,Wunderground v.1.15,2013-06-27 07:50:00,
2013-06-27 02:53:00,67.1,65.3,29.77,NW,323,0.0,0.0,94,0.00,,,0.00,0,Wunderground v.1.15,2013-06-27 07:53:00,
2013-06-27 02:54:00,67.0,65.2,29.77,NW,323,0.0,0.0,94,0.00,,,0.00,0,Wunderground v.1.15,2013-06-27 07:54:00,
2013-06-27 02:56:00,66.7,64.6,29.77,NW,323,0.0,0.0,93,0.00,,,0.00,0,Wunderground v.1.15,2013-06-27 07:56:00,
2013-06-27 02:59:00,66.6,64.8,29.77,NW,323,0.0,0.0,94,0.00,,,0.00,0,Wunderground v.1.15,2013-06-27 07:59:00,
2013-06-27 03:01:00,66.6,64.8,29.77,NW,323,0.0,0.0,94,0.00,,,0.00,0,Wunderground v.1.15,2013-06-27 08:01:00,
2013-06-27 03:02:00,66.7,64.9,29.77,NW,323,0.0,0.0,94,0.00,,,0.00,0,Wunderground v.1.15,2013-06-27 08:02:00,
2013-06-27 03:04:00,66.8,65.0,29.77,NW,323,0.0,0.0,94,0.00,,,0.00,0,Wunderground v.1.15,2013-06-27 08:04:00,
2013-06-27 03:07:00,67.0,65.2,29.77,NW,323,0.0,0.0,94,0.00,,,0.00,0,Wunderground v.1.15,2013-06-27 08:07:00,
2013-06-27 03:08:00,67.1,65.3,29.77,NW,323,0.0,0.0,94,0.00,,,0.00,0,Wunderground v.1.15,2013-06-27 08:08:00,
2013-06-27 03:09:00,67.2,65.4,29.77,NW,323,0.0,0.0,94,0.00,,,0.00,0,Wunderground v.1.15,2013-06-27 08:09:00,
2013-06-27 03:10:00,67.4,65.6,29.77,NW,323,0.0,0.0,94,0.00,,,0.00,0,Wunderground v.1.15,2013-06-27 08:10:00,
2013-06-27 03:14:00,67.4,65.0,29.77,NW,323,0.0,0.0,92,0.00,,,0.00,0,Wunderground v.1.15,2013-06-27 08:14:00,
2013-06-27 03:15:00,67.2,64.8,29.77,NW,323,0.0,0.0,92,0.00,,,0.00,0,Wunderground v.1.15,2013-06-27 08:15:00,
2013-06-27 03:17:00,66.8,64.4,29.77,NW,323,0.0,0.0,92,0.00,,,0.00,0,Wunderground v.1.15,2013-06-27 08:17:00,
2013-06-27 03:20:00,66.5,64.4,29.77,NW,323,0.0,0.0,93,0.00,,,0.00,0,Wunderground v.1.15,2013-06-27 08:20:00,
2013-06-27 03:21:00,66.5,64.4,29.77,NW,323,0.0,0.0,93,0.00,,,0.00,0,Wunderground v.1.15,2013-06-27 08:21:00,
2013-06-27 03:23:00,66.3,64.2,29.77,NW,323,0.0,0.0,93,0.00,,,0.00,0,Wunderground v.1.15,2013-06-27 08:23:00,
2013-06-27 03:26:00,66.3,64.5,29.77,NW,323,0.0,0.0,94,0.00,,,0.00,0,Wunderground v.1.15,2013-06-27 08:26:00,
2013-06-27 03:27:00,66.4,64.6,29.77,NW,323,0.0,0.0,94,0.00,,,0.00,0,Wunderground v.1.15,2013-06-27 08:27:00,
2013-06-27 03:29:00,66.7,64.9,29.77,NW,323,0.0,0.0,94,0.00,,,0.00,0,Wunderground v.1.15,2013-06-27 08:29:00,
2013-06-27 03:31:00,66.8,65.0,29.77,NW,323,0.0,0.0,94,0.00,,,0.00,0,Wunderground v.1.15,2013-06-27 08:31:00,
2013-06-27 03:33:00,67.0,65.2,29.77,NW,323,0.0,0.0,94,0.00,,,0.00,0,Wunderground v.1.15,2013-06-27 08:33:00,
2013-06-27 03:34:00,67.2,65.4,29.77,NW,323,0.0,0.0,94,0.00,,,0.00,0,Wunderground v.1.15,2013-06-27 08:34:00,
2013-06-27 03:35:00,67.2,65.1,29.77,NW,323,0.0,0.0,93,0.00,,,0.00,0,Wunderground v.1.15,2013-06-27 08:35:00,
2013-06-27 03:36:00,67.3,65.2,29.77,NW,323,0.0,0.0,93,0.00,,,0.00,0,Wunderground v.1.15,2013-06-27 08:36:00,
2013-06-27 03:37:00,67.4,65.3,29.77,NW,323,0.0,0.0,93,0.00,,,0.00,0,Wunderground v.1.15,2013-06-27 08:37:00,
2013-06-27 03:40:00,67.5,65.1,29.77,NW,323,0.0,0.0,92,0.00,,,0.00,0,Wunderground v.1.15,2013-06-27 08:40:00,
2013-06-27 03:41:00,67.6,65.2,29.77,NW,323,0.0,0.0,92,0.00,,,0.00,0,Wunderground v.1.15,2013-06-27 08:41:00,
2013-06-27 03:43:00,67.6,65.2,29.77,NW,323,0.0,0.0,92,0.00,,,0.00,0,Wunderground v.1.15,2013-06-27 08:43:00,
2013-06-27 03:45:00,67.5,64.8,29.77,NW,323,0.0,0.0,91,0.00,,,0.00,0,Wunderground v.1.15,2013-06-27 08:45:00,
2013-06-27 03:46:00,67.5,65.1,29.77,NW,323,0.0,0.0,92,0.00,,,0.00,0,Wunderground v.1.15,2013-06-27 08:46:00,
2013-06-27 03:48:00,67.6,65.2,29.78,NW,323,0.0,0.0,92,0.00,,,0.00,0,Wunderground v.1.15,2013-06-27 08:48:00,
2013-06-27 03:49:00,67.5,64.8,29.78,NW,323,0.0,0.0,91,0.00,,,0.00,0,Wunderground v.1.15,2013-06-27 08:49:00,
2013-06-27 03:51:00,67.2,64.5,29.78,NW,323,0.0,0.0,91,0.00,,,0.00,0,Wunderground v.1.15,2013-06-27 08:51:00,
2013-06-27 03:52:00,67.1,64.7,29.78,NW,323,0.0,0.0,92,0.00,,,0.00,0,Wunderground v.1.15,2013-06-27 08:52:00,
2013-06-27 03:54:00,66.9,64.5,29.78,NW,323,0.0,0.0,92,0.00,,,0.00,0,Wunderground v.1.15,2013-06-27 08:54:00,
2013-06-27 03:56:00,66.7,64.3,29.78,NW,323,0.0,0.0,92,0.00,,,0.00,0,Wunderground v.1.15,2013-06-27 08:56:00,
2013-06-27 03:57:00,66.5,64.1,29.77,NW,323,0.0,0.0,92,0.00,,,0.00,0,Wunderground v.1.15,2013-06-27 08:57:00,
2013-06-27 03:58:00,66.5,64.1,29.77,NW,323,0.0,0.0,92,0.00,,,0.00,0,Wunderground v.1.15,2013-06-27 08:58:00,
2013-06-27 04:01:00,66.2,64.1,29.77,NW,323,0.0,0.0,93,0.00,,,0.00,0,Wunderground v.1.15,2013-06-27 09:01:00,
2013-06-27 04:03:00,66.2,64.1,29.77,NW,323,0.0,0.0,93,0.00,,,0.00,0,Wunderground v.1.15,2013-06-27 09:03:00,
2013-06-27 04:04:00,66.2,64.4,29.77,NW,323,0.0,0.0,94,0.00,,,0.00,0,Wunderground v.1.15,2013-06-27 09:04:00,
2013-06-27 04:06:00,66.3,64.5,29.78,NW,323,0.0,0.0,94,0.00,,,0.00,0,Wunderground v.1.15,2013-06-27 09:06:00,
2013-06-27 04:09:00,66.4,64.6,29.77,NW,323,0.0,0.0,94,0.00,,,0.00,0,Wunderground v.1.15,2013-06-27 09:09:00,
2013-06-27 04:10:00,66.4,64.6,29.77,NW,323,0.0,0.0,94,0.00,,,0.00,0,Wunderground v.1.15,2013-06-27 09:10:00,
2013-06-27 04:11:00,66.4,64.6,29.77,NW,323,0.0,0.0,94,0.00,,,0.00,0,Wunderground v.1.15,2013-06-27 09:11:00,
2013-06-27 04:14:00,66.4,64.6,29.78,NW,323,0.0,0.0,94,0.00,,,0.00,0,Wunderground v.1.15,2013-06-27 09:14:00,
2013-06-27 04:15:00,66.5,64.7,29.78,NW,323,0.0,0.0,94,0.00,,,0.00,0,Wunderground v.1.15,2013-06-27 09:15:00,
2013-06-27 04:17:00,66.5,64.7,29.77,NW,323,0.0,0.0,94,0.00,,,0.00,0,Wunderground v.1.15,2013-06-27 09:17:00,
2013-06-27 04:20:00,66.6,64.8,29.77,NW,323,0.0,0.0,94,0.00,,,0.00,0,Wunderground v.1.15,2013-06-27 09:20:00,
2013-06-27 04:22:00,66.7,64.9,29.77,NW,323,0.0,0.0,94,0.00,,,0.00,0,Wunderground v.1.15,2013-06-27 09:22:00,
2013-06-27 04:23:00,66.7,64.9,29.77,NW,323,0.0,0.0,94,0.00,,,0.00,0,Wunderground v.1.15,2013-06-27 09:23:00,
2013-06-27 04:25:00,66.6,64.5,29.77,NW,323,0.0,0.0,93,0.00,,,0.00,0,Wunderground v.1.15,2013-06-27 09:25:00,
2013-06-27 04:27:00,66.6,64.5,29.77,NW,323,0.0,0.0,93,0.00,,,0.00,0,Wunderground v.1.15,2013-06-27 09:27:00,
2013-06-27 04:28:00,66.5,64.4,29.77,NW,323,0.0,0.0,93,0.00,,,0.00,0,Wunderground v.1.15,2013-06-27 09:28:00,
2013-06-27 04:30:00,66.4,64.3,29.78,NW,323,0.0,0.0,93,0.00,,,0.00,0,Wunderground v.1.15,2013-06-27 09:30:00,
2013-06-27 04:33:00,66.3,64.2,29.78,NW,323,0.0,0.0,93,0.00,,,0.00,0,Wunderground v.1.15,2013-06-27 09:33:00,
2013-06-27 04:34:00,66.3,64.2,29.78,NW,323,0.0,0.0,93,0.00,,,0.00,0,Wunderground v.1.15,2013-06-27 09:34:00,
2013-06-27 04:35:00,66.3,64.2,29.78,NW,323,0.0,0.0,93,0.00,,,0.00,0,Wunderground v.1.15,2013-06-27 09:35:00,
2013-06-27 04:37:00,66.3,64.2,29.78,NW,323,0.0,0.0,93,0.00,,,0.00,0,Wunderground v.1.15,2013-06-27 09:37:00,
2013-06-27 04:38:00,66.2,64.1,29.78,NW,323,0.0,0.0,93,0.00,,,0.00,0,Wunderground v.1.15,2013-06-27 09:38:00,
2013-06-27 04:39:00,66.3,64.2,29.78,NW,323,0.0,0.0,93,0.00,,,0.00,0,Wunderground v.1.15,2013-06-27 09:39:00,
2013-06-27 04:40:00,66.2,64.1,29.78,NW,323,0.0,0.0,93,0.00,,,0.00,0,Wunderground v.1.15,2013-06-27 09:40:00,
2013-06-27 04:43:00,66.3,64.2,29.79,NW,323,0.0,0.0,93,0.00,,,0.00,0,Wunderground v.1.15,2013-06-27 09:43:00,
2013-06-27 04:45:00,66.3,64.2,29.79,NW,323,0.0,0.0,93,0.00,,,0.00,0,Wunderground v.1.15,2013-06-27 09:45:00,
2013-06-27 04:46:00,66.2,64.1,29.79,NW,323,0.0,0.0,93,0.00,,,0.00,0,Wunderground v.1.15,2013-06-27 09:46:00,
2013-06-27 04:47:00,65.9,63.5,29.79,NW,323,0.0,0.0,92,0.00,,,0.00,0,Wunderground v.1.15,2013-06-27 09:47:00,
2013-06-27 04:48:00,65.6,63.2,29.79,NW,323,0.0,0.0,92,0.00,,,0.00,0,Wunderground v.1.15,2013-06-27 09:48:00,
2013-06-27 04:50:00,65.4,63.3,29.79,NW,323,0.0,0.0,93,0.00,,,0.00,0,Wunderground v.1.15,2013-06-27 09:50:00,
2013-06-27 04:52:00,65.2,63.1,29.79,NW,323,0.0,0.0,93,0.00,,,0.00,0,Wunderground v.1.15,2013-06-27 09:52:00,
2013-06-27 04:53:00,65.1,63.0,29.79,NW,323,0.0,0.0,93,0.00,,,0.00,0,Wunderground v.1.15,2013-06-27 09:53:00,
2013-06-27 04:55:00,65.1,63.3,29.78,NW,323,0.0,0.0,94,0.00,,,0.00,0,Wunderground v.1.15,2013-06-27 09:55:00,
2013-06-27 04:56:00,65.1,63.3,29.78,NW,323,0.0,0.0,94,0.00,,,0.00,0,Wunderground v.1.15,2013-06-27 09:56:00,
2013-06-27 04:58:00,65.2,63.4,29.78,NW,323,0.0,0.0,94,0.00,,,0.00,0,Wunderground v.1.15,2013-06-27 09:58:00,
2013-06-27 04:59:00,65.3,63.5,29.78,NW,323,0.0,0.0,94,0.00,,,0.00,0,Wunderground v.1.15,2013-06-27 09:59:00,
2013-06-27 05:00:00,65.4,63.9,29.78,NW,323,0.0,0.0,95,0.00,,,0.00,0,Wunderground v.1.15,2013-06-27 10:00:00,
2013-06-27 05:01:00,65.6,64.1,29.78,NW,323,0.0,0.0,95,0.00,,,0.00,0,Wunderground v.1.15,2013-06-27 10:01:00,
2013-06-27 05:04:00,65.9,64.1,29.79,NW,323,0.0,0.0,94,0.00,,,0.00,0,Wunderground v.1.15,2013-06-27 10:04:00,
2013-06-27 05:05:00,66.0,64.2,29.79,NW,323,0.0,0.0,94,0.00,,,0.00,0,Wunderground v.1.15,2013-06-27 10:05:00,
2013-06-27 05:06:00,66.1,64.3,29.79,NW,323,0.0,0.0,94,0.00,,,0.00,0,Wunderground v.1.15,2013-06-27 10:06:00,
2013-06-27 05:07:00,66.2,64.4,29.79,NW,323,0.0,0.0,94,0.00,,,0.00,0,Wunderground v.1.15,2013-06-27 10:07:00,
2013-06-27 05:11:00,66.1,64.0,29.79,NW,323,0.0,0.0,93,0.00,,,0.00,0,Wunderground v.1.15,2013-06-27 10:11:00,
2013-06-27 05:12:00,65.9,63.8,29.79,NW,323,0.0,0.0,93,0.00,,,0.00,0,Wunderground v.1.15,2013-06-27 10:12:00,
2013-06-27 05:13:00,65.7,63.6,29.79,NW,323,0.0,0.0,93,0.00,,,0.00,0,Wunderground v.1.15,2013-06-27 10:13:00,
2013-06-27 05:16:00,65.7,63.9,29.79,NW,323,0.0,0.0,94,0.00,,,0.00,0,Wunderground v.1.15,2013-06-27 10:16:00,
2013-06-27 05:17:00,65.8,64.0,29.79,NW,323,0.0,0.0,94,0.00,,,0.00,0,Wunderground v.1.15,2013-06-27 10:17:00,
2013-06-27 05:18:00,65.9,64.1,29.79,NW,323,0.0,0.0,94,0.00,,,0.00,0,Wunderground v.1.15,2013-06-27 10:18:00,
2013-06-27 05:19:00,65.9,64.1,29.79,NW,323,0.0,0.0,94,0.00,,,0.00,0,Wunderground v.1.15,2013-06-27 10:19:00,
2013-06-27 05:22:00,66.4,64.3,29.79,NW,323,0.0,0.0,93,0.00,,,0.00,0,Wunderground v.1.15,2013-06-27 10:22:00,
2013-06-27 05:23:00,66.5,64.4,29.79,NW,323,0.0,0.0,93,0.00,,,0.00,0,Wunderground v.1.15,2013-06-27 10:23:00,
2013-06-27 05:24:00,66.6,64.5,29.80,NW,323,0.0,0.0,93,0.00,,,0.00,0,Wunderground v.1.15,2013-06-27 10:24:00,
2013-06-27 05:25:00,66.6,64.2,29.80,NW,323,0.0,0.0,92,0.00,,,0.00,0,Wunderground v.1.15,2013-06-27 10:25:00,
2013-06-27 05:28:00,66.6,64.2,29.79,NW,323,0.0,0.0,92,0.00,,,0.00,0,Wunderground v.1.15,2013-06-27 10:28:00,
2013-06-27 05:30:00,66.8,64.4,29.79,NW,323,0.0,0.0,92,0.00,,,0.00,0,Wunderground v.1.15,2013-06-27 10:30:00,
2013-06-27 05:31:00,66.8,64.4,29.79,NW,323,0.0,0.0,92,0.00,,,0.00,0,Wunderground v.1.15,2013-06-27 10:31:00,
2013-06-27 05:32:00,67.0,64.6,29.79,NW,323,0.0,0.0,92,0.00,,,0.00,0,Wunderground v.1.15,2013-06-27 10:32:00,
2013-06-27 05:33:00,67.0,64.6,29.79,NW,323,0.0,0.0,92,0.00,,,0.00,0,Wunderground v.1.15,2013-06-27 10:33:00,
2013-06-27 05:36:00,66.7,64.0,29.80,NW,323,0.0,0.0,91,0.00,,,0.00,0,Wunderground v.1.15,2013-06-27 10:36:00,
2013-06-27 05:38:00,66.7,64.3,29.79,NW,323,0.0,0.0,92,0.00,,,0.00,0,Wunderground v.1.15,2013-06-27 10:38:00,
2013-06-27 05:40:00,66.7,64.0,29.79,NW,323,0.0,0.0,91,0.00,,,0.00,0,Wunderground v.1.15,2013-06-27 10:40:00,
2013-06-27 05:42:00,66.5,64.1,29.79,NW,323,0.0,0.0,92,0.00,,,0.00,5,Wunderground v.1.15,2013-06-27 10:42:00,
2013-06-27 05:44:00,66.6,64.2,29.80,NW,323,0.0,0.0,92,0.00,,,0.00,5,Wunderground v.1.15,2013-06-27 10:44:00,
2013-06-27 05:45:00,66.6,64.2,29.80,NW,323,0.0,0.0,92,0.00,,,0.00,5,Wunderground v.1.15,2013-06-27 10:45:00,
2013-06-27 05:47:00,66.7,64.3,29.80,NW,323,0.0,0.0,92,0.00,,,0.00,9,Wunderground v.1.15,2013-06-27 10:47:00,
2013-06-27 05:49:00,67.0,64.3,29.80,NW,323,0.0,0.0,91,0.00,,,0.00,11,Wunderground v.1.15,2013-06-27 10:49:00,
2013-06-27 05:50:00,67.0,64.3,29.80,NW,323,0.0,0.0,91,0.00,,,0.00,11,Wunderground v.1.15,2013-06-27 10:50:00,
2013-06-27 05:52:00,67.0,64.3,29.80,NW,323,0.0,0.0,91,0.00,,,0.00,12,Wunderground v.1.15,2013-06-27 10:52:00,
2013-06-27 05:55:00,67.2,64.5,29.80,NW,323,0.0,0.0,91,0.00,,,0.00,14,Wunderground v.1.15,2013-06-27 10:55:00,
2013-06-27 05:58:00,67.2,64.5,29.79,NW,323,0.0,0.0,91,0.00,,,0.00,14,Wunderground v.1.15,2013-06-27 10:58:00,
2013-06-27 06:00:00,67.2,64.5,29.80,NW,323,0.0,0.0,91,0.00,,,0.00,14,Wunderground v.1.15,2013-06-27 11:00:00,
2013-06-27 06:01:00,67.2,64.5,29.80,NW,323,0.0,0.0,91,0.00,,,0.00,14,Wunderground v.1.15,2013-06-27 11:01:00,
2013-06-27 06:03:00,67.2,64.5,29.80,NW,323,0.0,0.0,91,0.00,,,0.00,14,Wunderground v.1.15,2013-06-27 11:03:00,
2013-06-27 06:04:00,67.3,64.6,29.80,NW,323,0.0,0.0,91,0.00,,,0.00,14,Wunderground v.1.15,2013-06-27 11:04:00,
2013-06-27 06:05:00,67.3,64.6,29.80,NW,323,0.0,0.0,91,0.00,,,0.00,16,Wunderground v.1.15,2013-06-27 11:05:00,
2013-06-27 06:06:00,67.3,64.6,29.80,NW,323,0.0,0.0,91,0.00,,,0.00,16,Wunderground v.1.15,2013-06-27 11:06:00,
2013-06-27 06:07:00,67.4,64.7,29.80,NW,323,0.0,0.0,91,0.00,,,0.00,18,Wunderground v.1.15,2013-06-27 11:07:00,
2013-06-27 06:08:00,67.5,64.5,29.80,NW,323,0.0,0.0,90,0.00,,,0.00,19,Wunderground v.1.15,2013-06-27 11:08:00,
2013-06-27 06:10:00,67.6,64.6,29.80,NW,323,0.0,0.0,90,0.00,,,0.00,23,Wunderground v.1.15,2013-06-27 11:10:00,
2013-06-27 06:11:00,67.6,64.6,29.80,NW,323,0.0,0.0,90,0.00,,,0.00,23,Wunderground v.1.15,2013-06-27 11:11:00,
2013-06-27 06:13:00,67.7,64.7,29.80,NW,323,0.0,0.0,90,0.00,,,0.00,32,Wunderground v.1.15,2013-06-27 11:13:00,
2013-06-27 06:15:00,67.8,64.8,29.80,NW,323,0.0,0.0,90,0.00,,,0.00,32,Wunderground v.1.15,2013-06-27 11:15:00,
2013-06-27 06:16:00,67.9,64.9,29.80,NW,323,0.0,0.0,90,0.00,,,0.00,32,Wunderground v.1.15,2013-06-27 11:16:00,
2013-06-27 06:17:00,68.0,65.0,29.80,NW,323,0.0,0.0,90,0.00,,,0.00,40,Wunderground v.1.15,2013-06-27 11:17:00,
2013-06-27 06:18:00,68.1,65.1,29.80,NW,323,0.0,0.0,90,0.00,,,0.00,40,Wunderground v.1.15,2013-06-27 11:18:00,
2013-06-27 06:20:00,68.2,65.2,29.79,NW,323,0.0,0.0,90,0.00,,,0.00,46,Wunderground v.1.15,2013-06-27 11:20:00,
2013-06-27 06:22:00,68.3,65.3,29.79,NW,323,0.0,0.0,90,0.00,,,0.00,47,Wunderground v.1.15,2013-06-27 11:22:00,
2013-06-27 06:23:00,68.2,65.2,29.79,NW,323,0.0,0.0,90,0.00,,,0.00,49,Wunderground v.1.15,2013-06-27 11:23:00,
2013-06-27 06:24:00,68.2,65.2,29.80,NW,323,0.0,0.0,90,0.00,,,0.00,49,Wunderground v.1.15,2013-06-27 11:24:00,
2013-06-27 06:26:00,68.1,65.4,29.80,NW,323,0.0,0.0,91,0.00,,,0.00,51,Wunderground v.1.15,2013-06-27 11:26:00,
2013-06-27 06:27:00,68.2,65.5,29.80,NW,323,0.0,0.0,91,0.00,,,0.00,51,Wunderground v.1.15,2013-06-27 11:27:00,
2013-06-27 06:28:00,68.3,65.3,29.80,NW,323,0.0,0.0,90,0.00,,,0.00,51,Wunderground v.1.15,2013-06-27 11:28:00,
2013-06-27 06:31:00,68.6,65.9,29.80,NW,323,0.0,0.0,91,0.00,,,0.00,26,Wunderground v.1.15,2013-06-27 11:31:00,
2013-06-27 06:32:00,68.7,66.0,29.80,NW,323,0.0,0.0,91,0.00,,,0.00,25,Wunderground v.1.15,2013-06-27 11:32:00,
2013-06-27 06:34:00,68.8,65.7,29.80,NW,323,0.0,0.0,90,0.00,,,0.00,32,Wunderground v.1.15,2013-06-27 11:34:00,
2013-06-27 06:36:00,68.8,65.7,29.80,NW,323,0.0,0.0,90,0.00,,,0.00,35,Wunderground v.1.15,2013-06-27 11:36:00,
2013-06-27 06:37:00,68.8,65.7,29.80,NW,323,0.0,0.0,90,0.00,,,0.00,39,Wunderground v.1.15,2013-06-27 11:37:00,
2013-06-27 06:39:00,68.8,66.1,29.79,NW,323,0.0,0.0,91,0.00,,,0.00,83,Wunderground v.1.15,2013-06-27 11:39:00,
2013-06-27 06:41:00,68.8,66.1,29.79,NW,323,0.0,0.0,91,0.00,,,0.00,83,Wunderground v.1.15,2013-06-27 11:41:00,
2013-06-27 06:42:00,68.8,66.1,29.79,NW,323,0.0,0.0,91,0.00,,,0.00,84,Wunderground v.1.15,2013-06-27 11:42:00,
2013-06-27 06:44:00,69.0,66.3,29.79,NW,323,0.0,0.0,91,0.00,,,0.00,97,Wunderground v.1.15,2013-06-27 11:44:00,
2013-06-27 06:45:00,69.1,66.7,29.79,NW,323,0.0,0.0,92,0.00,,,0.00,102,Wunderground v.1.15,2013-06-27 11:45:00,
2013-06-27 06:46:00,69.1,66.4,29.79,NW,323,0.0,0.0,91,0.00,,,0.00,105,Wunderground v.1.15,2013-06-27 11:46:00,
2013-06-27 06:49:00,69.4,66.7,29.79,NW,323,0.0,0.0,91,0.00,,,0.00,51,Wunderground v.1.15,2013-06-27 11:49:00,
2013-06-27 06:50:00,69.5,66.8,29.79,NW,323,0.0,0.0,91,0.00,,,0.00,54,Wunderground v.1.15,2013-06-27 11:50:00,
2013-06-27 06:51:00,69.5,66.4,29.79,NW,323,0.0,0.0,90,0.00,,,0.00,90,Wunderground v.1.15,2013-06-27 11:51:00,
2013-06-27 06:56:00,69.7,67.0,29.79,NW,323,0.0,0.0,91,0.00,,,0.00,76,Wunderground v.1.15,2013-06-27 11:56:00,
2013-06-27 06:57:00,69.8,67.1,29.79,NW,323,0.0,0.0,91,0.00,,,0.00,60,Wunderground v.1.15,2013-06-27 11:57:00,
2013-06-27 06:58:00,69.8,67.1,29.79,NW,323,0.0,0.0,91,0.00,,,0.00,58,Wunderground v.1.15,2013-06-27 11:58:00,
2013-06-27 07:01:00,69.8,66.4,29.79,NW,323,0.0,0.0,89,0.00,,,0.00,130,Wunderground v.1.15,2013-06-27 12:01:00,
2013-06-27 07:02:00,69.8,66.7,29.79,NW,323,0.0,0.0,90,0.00,,,0.00,127,Wunderground v.1.15,2013-06-27 12:02:00,
2013-06-27 07:03:00,69.9,66.8,29.79,NW,323,0.0,0.0,90,0.00,,,0.00,114,Wunderground v.1.15,2013-06-27 12:03:00,
2013-06-27 07:05:00,70.0,66.9,29.79,NW,323,0.0,0.0,90,0.00,,,0.00,135,Wunderground v.1.15,2013-06-27 12:05:00,
2013-06-27 07:07:00,70.3,67.2,29.79,NW,323,0.0,0.0,90,0.00,,,0.00,118,Wunderground v.1.15,2013-06-27 12:07:00,
2013-06-27 07:08:00,70.3,67.2,29.79,NW,323,0.0,0.0,90,0.00,,,0.00,120,Wunderground v.1.15,2013-06-27 12:08:00,
2013-06-27 07:09:00,70.3,67.2,29.79,NW,323,0.0,0.0,90,0.00,,,0.00,121,Wunderground v.1.15,2013-06-27 12:09:00,
2013-06-27 07:10:00,70.5,67.1,29.79,NW,323,0.0,0.0,89,0.00,,,0.00,251,Wunderground v.1.15,2013-06-27 12:10:00,
2013-06-27 07:14:00,70.9,67.5,29.80,NW,323,0.0,0.0,89,0.00,,,0.00,185,Wunderground v.1.15,2013-06-27 12:14:00,
2013-06-27 07:15:00,71.1,67.7,29.80,NW,323,0.0,0.0,89,0.00,,,0.00,264,Wunderground v.1.15,2013-06-27 12:15:00,
2013-06-27 07:17:00,71.3,67.2,29.80,NW,323,0.0,0.0,87,0.00,,,0.00,204,Wunderground v.1.15,2013-06-27 12:17:00,
2013-06-27 07:19:00,71.5,67.4,29.80,NW,323,0.0,0.0,87,0.00,,,0.00,195,Wunderground v.1.15,2013-06-27 12:19:00,
2013-06-27 07:20:00,71.5,67.4,29.80,NW,323,0.0,0.0,87,0.00,,,0.00,248,Wunderground v.1.15,2013-06-27 12:20:00,
2013-06-27 07:21:00,71.6,67.5,29.80,NW,323,0.0,0.0,87,0.00,,,0.00,248,Wunderground v.1.15,2013-06-27 12:21:00,
2013-06-27 07:22:00,71.6,67.2,29.80,NW,323,0.0,0.0,86,0.00,,,0.00,274,Wunderground v.1.15,2013-06-27 12:22:00,
2013-06-27 07:26:00,72.1,67.7,29.80,NW,323,2.0,2.0,86,0.00,,,0.00,250,Wunderground v.1.15,2013-06-27 12:26:00,
2013-06-27 07:27:00,72.2,67.8,29.80,NW,323,0.0,2.0,86,0.00,,,0.00,250,Wunderground v.1.15,2013-06-27 12:27:00,
2013-06-27 07:28:00,72.3,67.9,29.80,NW,323,0.0,2.0,86,0.00,,,0.00,250,Wunderground v.1.15,2013-06-27 12:28:00,
2013-06-27 07:32:00,72.7,67.6,29.81,NW,323,0.0,0.0,84,0.00,,,0.00,216,Wunderground v.1.15,2013-06-27 12:32:00,
2013-06-27 07:33:00,72.9,68.1,29.81,NW,323,0.0,0.0,85,0.00,,,0.00,211,Wunderground v.1.15,2013-06-27 12:33:00,
2013-06-27 07:34:00,73.0,67.9,29.81,NW,323,0.0,0.0,84,0.00,,,0.00,251,Wunderground v.1.15,2013-06-27 12:34:00,
2013-06-27 07:37:00,73.3,68.5,29.81,NW,323,0.0,0.0,85,0.00,,,0.00,218,Wunderground v.1.15,2013-06-27 12:37:00,
2013-06-27 07:38:00,73.4,68.6,29.81,NW,323,0.0,0.0,85,0.00,,,0.00,218,Wunderground v.1.15,2013-06-27 12:38:00,
2013-06-27 07:39:00,73.4,68.6,29.81,NW,315,2.0,2.0,85,0.00,,,0.00,271,Wunderground v.1.15,2013-06-27 12:39:00,
2013-06-27 07:40:00,73.5,68.7,29.81,WNW,284,2.0,2.0,85,0.00,,,0.00,297,Wunderground v.1.15,2013-06-27 12:40:00,
2013-06-27 07:42:00,73.7,68.6,29.81,West,281,0.0,2.0,84,0.00,,,0.00,325,Wunderground v.1.15,2013-06-27 12:42:00,
2013-06-27 07:43:00,73.8,68.7,29.81,West,281,0.0,2.0,84,0.00,,,0.00,325,Wunderground v.1.15,2013-06-27 12:43:00,
2013-06-27 07:46:00,74.0,68.5,29.81,WSW,247,2.0,3.0,83,0.00,,,0.00,332,Wunderground v.1.15,2013-06-27 12:46:00,
2013-06-27 07:48:00,74.0,68.2,29.81,WSW,247,2.0,3.0,82,0.00,,,0.00,160,Wunderground v.1.15,2013-06-27 12:48:00,
2013-06-27 07:49:00,73.9,68.4,29.81,WSW,252,3.0,5.0,83,0.00,,,0.00,128,Wunderground v.1.15,2013-06-27 12:49:00,
2013-06-27 07:51:00,73.8,68.3,29.81,West,259,3.0,4.0,83,0.00,,,0.00,148,Wunderground v.1.15,2013-06-27 12:51:00,
2013-06-27 07:54:00,73.8,68.0,29.81,WSW,257,1.0,4.0,82,0.00,,,0.00,288,Wunderground v.1.15,2013-06-27 12:54:00,
2013-06-27 07:56:00,73.9,68.1,29.81,WSW,257,0.0,4.0,82,0.00,,,0.00,134,Wunderground v.1.15,2013-06-27 12:56:00,
2013-06-27 07:57:00,73.9,68.4,29.81,WSW,257,3.0,4.0,83,0.00,,,0.00,128,Wunderground v.1.15,2013-06-27 12:57:00,
2013-06-27 07:59:00,74.0,68.2,29.81,WSW,257,0.0,4.0,82,0.00,,,0.00,120,Wunderground v.1.15,2013-06-27 12:59:00,
2013-06-27 08:00:00,74.0,68.2,29.81,WSW,257,0.0,4.0,82,0.00,,,0.00,120,Wunderground v.1.15,2013-06-27 13:00:00,
2013-06-27 08:02:00,74.1,67.9,29.81,WSW,257,0.0,1.0,81,0.00,,,0.00,111,Wunderground v.1.15,2013-06-27 13:02:00,
2013-06-27 08:03:00,74.1,68.3,29.81,WSW,257,0.0,1.0,82,0.00,,,0.00,105,Wunderground v.1.15,2013-06-27 13:03:00,
2013-06-27 08:05:00,74.1,67.5,29.81,WSW,257,0.0,1.0,80,0.00,,,0.00,105,Wunderground v.1.15,2013-06-27 13:05:00,
2013-06-27 08:07:00,74.1,67.5,29.81,WSW,257,0.0,1.0,80,0.00,,,0.00,104,Wunderground v.1.15,2013-06-27 13:07:00,
2013-06-27 08:09:00,74.1,67.9,29.81,WSW,257,0.0,1.0,81,0.00,,,0.00,100,Wunderground v.1.15,2013-06-27 13:09:00,
2013-06-27 08:10:00,74.1,67.9,29.81,WSW,257,0.0,0.0,81,0.00,,,0.00,98,Wunderground v.1.15,2013-06-27 13:10:00,
2013-06-27 08:11:00,74.0,67.8,29.81,WSW,257,0.0,0.0,81,0.00,,,0.00,98,Wunderground v.1.15,2013-06-27 13:11:00,
2013-06-27 08:13:00,74.0,68.5,29.81,WSW,257,0.0,0.0,83,0.00,,,0.00,105,Wunderground v.1.15,2013-06-27 13:13:00,
2013-06-27 08:15:00,73.9,68.1,29.81,WSW,257,0.0,0.0,82,0.00,,,0.00,118,Wunderground v.1.15,2013-06-27 13:15:00,
2013-06-27 08:16:00,73.9,68.1,29.81,WSW,257,0.0,0.0,82,0.00,,,0.00,118,Wunderground v.1.15,2013-06-27 13:16:00,
2013-06-27 08:17:00,73.9,68.1,29.81,WSW,257,0.0,0.0,82,0.00,,,0.00,125,Wunderground v.1.15,2013-06-27 13:17:00,
2013-06-27 08:19:00,73.9,68.8,29.81,WSW,257,0.0,0.0,84,0.00,,,0.00,142,Wunderground v.1.15,2013-06-27 13:19:00,
2013-06-27 08:21:00,73.9,68.4,29.81,WSW,257,0.0,0.0,83,0.00,,,0.00,149,Wunderground v.1.15,2013-06-27 13:21:00,
2013-06-27 08:22:00,73.9,68.4,29.81,WSW,257,0.0,0.0,83,0.00,,,0.00,155,Wunderground v.1.15,2013-06-27 13:22:00,
2013-06-27 08:24:00,74.0,68.9,29.81,WSW,257,0.0,0.0,84,0.00,,,0.00,162,Wunderground v.1.15,2013-06-27 13:24:00,
2013-06-27 08:27:00,74.2,68.7,29.80,WSW,257,0.0,0.0,83,0.00,,,0.00,172,Wunderground v.1.15,2013-06-27 13:27:00,
2013-06-27 08:28:00,74.2,68.7,29.80,WSW,257,0.0,0.0,83,0.00,,,0.00,174,Wunderground v.1.15,2013-06-27 13:28:00,
2013-06-27 08:29:00,74.3,68.4,29.80,WSW,257,0.0,0.0,82,0.00,,,0.00,178,Wunderground v.1.15,2013-06-27 13:29:00,
2013-06-27 08:31:00,74.4,68.9,29.80,WSW,257,0.0,0.0,83,0.00,,,0.00,181,Wunderground v.1.15,2013-06-27 13:31:00,
2013-06-27 08:33:00,74.6,69.8,29.80,WSW,257,0.0,0.0,85,0.00,,,0.00,188,Wunderground v.1.15,2013-06-27 13:33:00,
2013-06-27 08:35:00,74.6,69.8,29.80,WSW,257,0.0,0.0,85,0.00,,,0.00,190,Wunderground v.1.15,2013-06-27 13:35:00,
2013-06-27 08:36:00,74.7,69.2,29.80,WSW,257,0.0,0.0,83,0.00,,,0.00,197,Wunderground v.1.15,2013-06-27 13:36:00,
2013-06-27 08:38:00,74.9,69.7,29.80,WSW,257,0.0,0.0,84,0.00,,,0.00,192,Wunderground v.1.15,2013-06-27 13:38:00,
2013-06-27 08:40:00,74.9,69.4,29.80,WSW,257,0.0,0.0,83,0.00,,,0.00,190,Wunderground v.1.15,2013-06-27 13:40:00,
2013-06-27 08:42:00,74.9,69.4,29.80,WSW,257,0.0,0.0,83,0.00,,,0.00,199,Wunderground v.1.15,2013-06-27 13:42:00,
2013-06-27 08:43:00,75.0,69.8,29.80,WSW,257,0.0,0.0,84,0.00,,,0.00,199,Wunderground v.1.15,2013-06-27 13:43:00,
2013-06-27 08:44:00,75.1,69.9,29.80,WSW,257,0.0,0.0,84,0.00,,,0.00,323,Wunderground v.1.15,2013-06-27 13:44:00,
2013-06-27 08:45:00,75.2,69.7,29.80,WSW,257,0.0,0.0,83,0.00,,,0.00,323,Wunderground v.1.15,2013-06-27 13:45:00,
2013-06-27 08:48:00,75.8,70.3,29.80,WSW,257,0.0,0.0,83,0.00,,,0.00,323,Wunderground v.1.15,2013-06-27 13:48:00,
2013-06-27 08:49:00,76.2,70.7,29.80,WSW,257,0.0,0.0,83,0.00,,,0.00,309,Wunderground v.1.15,2013-06-27 13:49:00,
2013-06-27 08:50:00,76.2,69.6,29.80,WSW,257,0.0,0.0,80,0.00,,,0.00,309,Wunderground v.1.15,2013-06-27 13:50:00,
2013-06-27 08:51:00,76.3,69.7,29.80,WSW,257,0.0,0.0,80,0.00,,,0.00,162,Wunderground v.1.15,2013-06-27 13:51:00,
2013-06-27 08:53:00,76.4,70.1,29.80,WSW,241,3.0,3.0,81,0.00,,,0.00,146,Wunderground v.1.15,2013-06-27 13:53:00,
2013-06-27 08:54:00,76.4,69.4,29.80,WSW,242,0.0,3.0,79,0.00,,,0.00,137,Wunderground v.1.15,2013-06-27 13:54:00,
2013-06-27 08:56:00,76.3,68.6,29.80,SW,228,2.0,3.0,77,0.00,,,0.00,135,Wunderground v.1.15,2013-06-27 13:56:00,
2013-06-27 08:57:00,76.3,68.9,29.80,SW,228,2.0,3.0,78,0.00,,,0.00,135,Wunderground v.1.15,2013-06-27 13:57:00,
2013-06-27 08:59:00,76.2,69.6,29.80,SW,228,0.0,3.0,80,0.00,,,0.00,134,Wunderground v.1.15,2013-06-27 13:59:00,
2013-06-27 09:00:00,76.2,69.6,29.80,SW,228,0.0,1.0,80,0.00,,,0.00,132,Wunderground v.1.15,2013-06-27 14:00:00,
2013-06-27 09:01:00,76.2,69.6,29.80,SW,228,0.0,1.0,80,0.00,,,0.00,132,Wunderground v.1.15,2013-06-27 14:01:00,
2013-06-27 09:03:00,76.2,69.6,29.80,SW,228,0.0,1.0,80,0.00,,,0.00,134,Wunderground v.1.15,2013-06-27 14:03:00,
2013-06-27 09:05:00,76.4,70.1,29.80,SW,228,0.0,1.0,81,0.00,,,0.00,137,Wunderground v.1.15,2013-06-27 14:05:00,
2013-06-27 09:07:00,76.4,70.1,29.80,SW,228,0.0,1.0,81,0.00,,,0.00,141,Wunderground v.1.15,2013-06-27 14:07:00,
2013-06-27 09:08:00,76.4,70.1,29.80,SW,228,0.0,1.0,81,0.00,,,0.00,132,Wunderground v.1.15,2013-06-27 14:08:00,
2013-06-27 09:10:00,76.4,70.5,29.80,SW,228,0.0,0.0,82,0.00,,,0.00,120,Wunderground v.1.15,2013-06-27 14:10:00,
2013-06-27 09:12:00,76.4,70.1,29.80,SW,228,0.0,0.0,81,0.00,,,0.00,120,Wunderground v.1.15,2013-06-27 14:12:00,
2013-06-27 09:13:00,76.4,69.8,29.80,SW,228,0.0,0.0,80,0.00,,,0.00,120,Wunderground v.1.15,2013-06-27 14:13:00,
2013-06-27 09:15:00,76.5,69.9,29.80,SW,228,0.0,0.0,80,0.00,,,0.00,121,Wunderground v.1.15,2013-06-27 14:15:00,
2013-06-27 09:16:00,76.4,69.8,29.80,SW,228,0.0,0.0,80,0.00,,,0.00,121,Wunderground v.1.15,2013-06-27 14:16:00,
2013-06-27 09:18:00,76.4,69.8,29.80,SW,229,1.0,2.0,80,0.00,,,0.00,123,Wunderground v.1.15,2013-06-27 14:18:00,
2013-06-27 09:19:00,76.4,70.1,29.80,SW,229,0.0,2.0,81,0.00,,,0.00,125,Wunderground v.1.15,2013-06-27 14:19:00,
2013-06-27 09:20:00,76.5,70.2,29.80,SW,229,0.0,0.0,81,0.00,,,0.00,128,Wunderground v.1.15,2013-06-27 14:20:00,
2013-06-27 09:21:00,76.5,69.9,29.80,WSW,244,1.0,1.0,80,0.00,,,0.00,141,Wunderground v.1.15,2013-06-27 14:21:00,
2013-06-27 09:24:00,76.6,69.6,29.81,WSW,249,1.0,3.0,79,0.00,,,0.00,158,Wunderground v.1.15,2013-06-27 14:24:00,
2013-06-27 09:25:00,76.7,70.1,29.80,WSW,247,2.0,3.0,80,0.00,,,0.00,156,Wunderground v.1.15,2013-06-27 14:25:00,
2013-06-27 09:27:00,76.8,70.5,29.81,WSW,248,1.0,4.0,81,0.00,,,0.00,149,Wunderground v.1.15,2013-06-27 14:27:00,
2013-06-27 09:30:00,76.7,70.4,29.80,WSW,249,3.0,3.0,81,0.00,,,0.00,146,Wunderground v.1.15,2013-06-27 14:30:00,
2013-06-27 09:31:00,76.7,70.4,29.80,WSW,248,3.0,3.0,81,0.00,,,0.00,146,Wunderground v.1.15,2013-06-27 14:31:00,
2013-06-27 09:32:00,76.7,70.1,29.80,WSW,253,2.0,3.0,80,0.00,,,0.00,153,Wunderground v.1.15,2013-06-27 14:32:00,
2013-06-27 09:33:00,76.8,70.2,29.80,WSW,256,3.0,3.0,80,0.00,,,0.00,176,Wunderground v.1.15,2013-06-27 14:33:00,
2013-06-27 09:34:00,76.8,70.2,29.80,WSW,257,4.0,4.0,80,0.00,,,0.00,190,Wunderground v.1.15,2013-06-27 14:34:00,
2013-06-27 09:37:00,77.0,70.4,29.80,WSW,252,2.0,4.0,80,0.00,,,0.00,216,Wunderground v.1.15,2013-06-27 14:37:00,
2013-06-27 09:38:00,77.0,70.4,29.81,WSW,258,3.0,4.0,80,0.00,,,0.00,218,Wunderground v.1.15,2013-06-27 14:38:00,
2013-06-27 09:39:00,77.1,70.8,29.81,West,261,2.0,4.0,81,0.00,,,0.00,216,Wunderground v.1.15,2013-06-27 14:39:00,
2013-06-27 09:41:00,77.2,70.2,29.81,WSW,245,5.0,6.0,79,0.00,,,0.00,142,Wunderground v.1.15,2013-06-27 14:41:00,
2013-06-27 09:42:00,77.2,70.2,29.81,WSW,244,4.0,6.0,79,0.00,,,0.00,121,Wunderground v.1.15,2013-06-27 14:42:00,
2013-06-27 09:43:00,77.2,70.2,29.81,WSW,244,4.0,6.0,79,0.00,,,0.00,121,Wunderground v.1.15,2013-06-27 14:43:00,
2013-06-27 09:45:00,77.1,70.5,29.80,WSW,248,5.0,6.0,80,0.00,,,0.00,98,Wunderground v.1.15,2013-06-27 14:45:00,
2013-06-27 09:47:00,77.0,70.4,29.81,WSW,244,5.0,6.0,80,0.00,,,0.00,86,Wunderground v.1.15,2013-06-27 14:47:00,
2013-06-27 09:48:00,77.0,70.4,29.81,WSW,253,4.0,6.0,80,0.00,,,0.00,77,Wunderground v.1.15,2013-06-27 14:48:00,
2013-06-27 09:51:00,77.0,70.4,29.81,West,260,5.0,5.0,80,0.00,,,0.00,51,Wunderground v.1.15,2013-06-27 14:51:00,
2013-06-27 09:52:00,77.0,70.7,29.81,West,265,5.0,5.0,81,0.00,,,0.00,47,Wunderground v.1.15,2013-06-27 14:52:00,
2013-06-27 09:53:00,76.9,70.6,29.81,West,265,4.0,5.0,81,0.00,,,0.00,47,Wunderground v.1.15,2013-06-27 14:53:00,
2013-06-27 09:56:00,76.8,70.9,29.81,West,267,3.0,5.0,82,0.00,,,0.00,47,Wunderground v.1.15,2013-06-27 14:56:00,
2013-06-27 09:58:00,76.7,71.1,29.81,West,276,2.0,5.0,83,0.00,,,0.00,44,Wunderground v.1.15,2013-06-27 14:58:00,
2013-06-27 09:59:00,76.7,71.1,29.81,West,280,4.0,5.0,83,0.00,,,0.00,42,Wunderground v.1.15,2013-06-27 14:59:00,
2013-06-27 10:00:00,76.6,71.0,29.82,West,277,3.0,3.0,83,0.00,,,0.00,42,Wunderground v.1.15,2013-06-27 15:00:00,
2013-06-27 10:02:00,76.4,70.9,29.82,West,268,5.0,5.0,83,0.00,,,0.00,40,Wunderground v.1.15,2013-06-27 15:02:00,
2013-06-27 10:04:00,76.3,70.4,29.82,West,261,5.0,7.0,82,0.00,,,0.00,47,Wunderground v.1.15,2013-06-27 15:04:00,
2013-06-27 10:05:00,76.3,70.4,29.82,West,261,5.0,7.0,82,0.00,,,0.00,47,Wunderground v.1.15,2013-06-27 15:05:00,
2013-06-27 10:06:00,76.2,70.3,29.82,WSW,258,6.0,7.0,82,0.00,,,0.00,51,Wunderground v.1.15,2013-06-27 15:06:00,
2013-06-27 10:07:00,76.1,70.2,29.82,WSW,256,5.0,8.0,82,0.00,,,0.00,56,Wunderground v.1.15,2013-06-27 15:07:00,
2013-06-27 10:10:00,76.2,69.9,29.82,WSW,248,7.0,7.0,81,0.00,,,0.00,63,Wunderground v.1.15,2013-06-27 15:10:00,
2013-06-27 10:11:00,76.2,69.6,29.82,WSW,240,7.0,7.0,80,0.00,,,0.00,63,Wunderground v.1.15,2013-06-27 15:11:00,
2013-06-27 10:12:00,76.2,69.6,29.82,WSW,256,6.0,8.0,80,0.00,,,0.00,67,Wunderground v.1.15,2013-06-27 15:12:00,
2013-06-27 10:15:00,76.4,69.4,29.82,WSW,254,6.0,9.0,79,0.00,,,0.00,72,Wunderground v.1.15,2013-06-27 15:15:00,
2013-06-27 10:16:00,76.4,69.4,29.81,WSW,256,7.0,9.0,79,0.00,,,0.00,72,Wunderground v.1.15,2013-06-27 15:16:00,
2013-06-27 10:17:00,76.4,69.4,29.81,WSW,254,6.0,9.0,79,0.00,,,0.00,72,Wunderground v.1.15,2013-06-27 15:17:00,
2013-06-27 10:18:00,76.4,69.4,29.81,WSW,240,6.0,9.0,79,0.00,,,0.00,74,Wunderground v.1.15,2013-06-27 15:18:00,
2013-06-27 10:20:00,76.3,69.7,29.81,WSW,249,7.0,7.0,80,0.00,,,0.00,79,Wunderground v.1.15,2013-06-27 15:20:00,
2013-06-27 10:22:00,76.2,69.6,29.81,WSW,246,5.0,7.0,80,0.00,,,0.00,81,Wunderground v.1.15,2013-06-27 15:22:00,
2013-06-27 10:23:00,76.1,69.5,29.81,WSW,249,3.0,7.0,80,0.00,,,0.00,81,Wunderground v.1.15,2013-06-27 15:23:00,
2013-06-27 10:24:00,76.0,69.7,29.81,WSW,257,3.0,7.0,81,0.00,,,0.00,84,Wunderground v.1.15,2013-06-27 15:24:00,
2013-06-27 10:26:00,76.0,69.4,29.81,WSW,257,5.0,7.0,80,0.00,,,0.00,91,Wunderground v.1.15,2013-06-27 15:26:00,
2013-06-27 10:27:00,76.0,69.4,29.80,West,259,5.0,7.0,80,0.00,,,0.00,93,Wunderground v.1.15,2013-06-27 15:27:00,
2013-06-27 10:28:00,75.9,69.6,29.80,WSW,256,6.0,7.0,81,0.00,,,0.00,93,Wunderground v.1.15,2013-06-27 15:28:00,
2013-06-27 10:29:00,75.9,69.6,29.80,West,261,6.0,7.0,81,0.00,,,0.00,91,Wunderground v.1.15,2013-06-27 15:29:00,
2013-06-27 10:31:00,76.0,69.4,29.80,West,261,6.0,6.0,80,0.00,,,0.00,88,Wunderground v.1.15,2013-06-27 15:31:00,
2013-06-27 10:33:00,76.1,69.5,29.80,West,264,4.0,7.0,80,0.00,,,0.00,93,Wunderground v.1.15,2013-06-27 15:33:00,
2013-06-27 10:34:00,76.1,69.1,29.80,West,264,4.0,7.0,79,0.00,,,0.00,93,Wunderground v.1.15,2013-06-27 15:34:00,
2013-06-27 10:35:00,76.1,69.5,29.80,West,265,3.0,7.0,80,0.00,,,0.00,98,Wunderground v.1.15,2013-06-27 15:35:00,
2013-06-27 10:39:00,76.2,69.9,29.81,WNW,282,4.0,7.0,81,0.00,,,0.00,109,Wunderground v.1.15,2013-06-27 15:39:00,
2013-06-27 10:40:00,76.2,69.9,29.81,WNW,282,4.0,4.0,81,0.00,,,0.00,105,Wunderground v.1.15,2013-06-27 15:40:00,
2013-06-27 10:41:00,76.1,69.8,29.81,WNW,282,3.0,5.0,81,0.00,,,0.00,104,Wunderground v.1.15,2013-06-27 15:41:00,
2013-06-27 10:43:00,76.0,69.7,29.81,WNW,291,5.0,5.0,81,0.00,,,0.00,104,Wunderground v.1.15,2013-06-27 15:43:00,
2013-06-27 10:45:00,75.9,70.0,29.81,NW,318,4.0,6.0,82,0.00,,,0.00,93,Wunderground v.1.15,2013-06-27 15:45:00,
2013-06-27 10:46:00,75.9,70.0,29.81,NW,306,4.0,6.0,82,0.00,,,0.00,77,Wunderground v.1.15,2013-06-27 15:46:00,
2013-06-27 10:47:00,75.7,70.2,29.81,NW,307,5.0,6.0,83,0.00,,,0.00,72,Wunderground v.1.15,2013-06-27 15:47:00,
2013-06-27 10:48:00,75.7,70.2,29.81,NW,306,6.0,6.0,83,0.00,,,0.00,67,Wunderground v.1.15,2013-06-27 15:48:00,
2013-06-27 10:49:00,75.6,70.1,29.81,WNW,303,4.0,6.0,83,0.00,,,0.00,65,Wunderground v.1.15,2013-06-27 15:49:00,
2013-06-27 10:51:00,75.5,70.0,29.82,WNW,302,4.0,5.0,83,0.00,,,0.00,65,Wunderground v.1.15,2013-06-27 15:51:00,
2013-06-27 10:53:00,75.4,69.5,29.82,NW,307,5.0,6.0,82,0.00,,,0.00,69,Wunderground v.1.15,2013-06-27 15:53:00,
2013-06-27 10:55:00,75.4,69.9,29.81,WNW,300,4.0,6.0,83,0.00,,,0.00,81,Wunderground v.1.15,2013-06-27 15:55:00,
2013-06-27 10:56:00,75.4,69.5,29.81,WNW,290,5.0,6.0,82,0.00,,,0.00,84,Wunderground v.1.15,2013-06-27 15:56:00,
2013-06-27 10:59:00,75.4,69.5,29.82,WNW,300,5.0,8.0,82,0.00,,,0.00,98,Wunderground v.1.15,2013-06-27 15:59:00,
2013-06-27 11:00:00,75.4,69.5,29.82,WNW,293,5.0,5.0,82,0.00,,,0.00,107,Wunderground v.1.15,2013-06-27 16:00:00,
2013-06-27 11:01:00,75.4,69.5,29.82,WNW,301,4.0,5.0,82,0.00,,,0.00,107,Wunderground v.1.15,2013-06-27 16:01:00,
2013-06-27 11:02:00,75.5,69.6,29.82,WNW,294,4.0,5.0,82,0.00,,,0.00,114,Wunderground v.1.15,2013-06-27 16:02:00,
2013-06-27 11:04:00,75.5,70.0,29.82,WNW,296,5.0,6.0,83,0.00,,,0.00,121,Wunderground v.1.15,2013-06-27 16:04:00,
2013-06-27 11:06:00,75.5,70.0,29.82,WNW,295,3.0,6.0,83,0.00,,,0.00,137,Wunderground v.1.15,2013-06-27 16:06:00,
2013-06-27 11:07:00,75.6,70.1,29.82,WNW,290,6.0,6.0,83,0.00,,,0.00,148,Wunderground v.1.15,2013-06-27 16:07:00,
2013-06-27 11:08:00,75.6,70.1,29.83,WNW,290,3.0,6.0,83,0.00,,,0.00,146,Wunderground v.1.15,2013-06-27 16:08:00,
2013-06-27 11:11:00,75.7,69.8,29.83,WNW,286,5.0,6.0,82,0.00,,,0.00,139,Wunderground v.1.15,2013-06-27 16:11:00,
2013-06-27 11:13:00,75.8,69.9,29.83,WNW,283,7.0,7.0,82,0.00,,,0.00,158,Wunderground v.1.15,2013-06-27 16:13:00,
2013-06-27 11:14:00,75.8,69.9,29.83,WNW,284,6.0,7.0,82,0.00,,,0.00,174,Wunderground v.1.15,2013-06-27 16:14:00,
2013-06-27 11:16:00,75.9,69.6,29.84,WNW,283,7.0,7.0,81,0.00,,,0.00,179,Wunderground v.1.15,2013-06-27 16:16:00,
2013-06-27 11:17:00,75.9,69.6,29.84,WNW,287,7.0,7.0,81,0.00,,,0.00,174,Wunderground v.1.15,2013-06-27 16:17:00,
2013-06-27 11:18:00,76.0,70.1,29.84,WNW,294,6.0,7.0,82,0.00,,,0.00,165,Wunderground v.1.15,2013-06-27 16:18:00,
2013-06-27 11:21:00,76.0,69.7,29.85,WNW,302,6.0,8.0,81,0.00,,,0.00,141,Wunderground v.1.15,2013-06-27 16:21:00,
2013-06-27 11:22:00,76.0,69.7,29.85,WNW,299,6.0,8.0,81,0.00,,,0.00,134,Wunderground v.1.15,2013-06-27 16:22:00,
2013-06-27 11:23:00,76.0,69.7,29.85,NW,306,7.0,8.0,81,0.00,,,0.00,134,Wunderground v.1.15,2013-06-27 16:23:00,
2013-06-27 11:24:00,76.1,69.8,29.85,WNW,303,8.0,8.0,81,0.00,,,0.00,120,Wunderground v.1.15,2013-06-27 16:24:00,
2013-06-27 11:27:00,76.0,69.7,29.85,NW,311,6.0,8.0,81,0.00,,,0.00,118,Wunderground v.1.15,2013-06-27 16:27:00,
2013-06-27 11:28:00,76.0,69.7,29.85,NW,307,6.0,8.0,81,0.00,,,0.00,120,Wunderground v.1.15,2013-06-27 16:28:00,
2013-06-27 11:29:00,76.0,69.7,29.85,WNW,294,6.0,8.0,81,0.00,,,0.00,123,Wunderground v.1.15,2013-06-27 16:29:00,
2013-06-27 11:30:00,75.9,69.6,29.85,WNW,301,6.0,7.0,81,0.00,,,0.00,128,Wunderground v.1.15,2013-06-27 16:30:00,
2013-06-27 11:32:00,75.9,69.6,29.85,NW,313,7.0,8.0,81,0.00,,,0.00,128,Wunderground v.1.15,2013-06-27 16:32:00,
2013-06-27 11:34:00,75.9,69.6,29.85,WNW,298,7.0,8.0,81,0.00,,,0.00,125,Wunderground v.1.15,2013-06-27 16:34:00,
2013-06-27 11:35:00,75.9,69.6,29.85,NW,317,7.0,8.0,81,0.00,,,0.00,121,Wunderground v.1.15,2013-06-27 16:35:00,
2013-06-27 11:39:00,76.0,69.4,29.86,WNW,292,11.0,11.0,80,0.00,,,0.00,116,Wunderground v.1.15,2013-06-27 16:39:00,
2013-06-27 11:40:00,76.0,69.0,29.86,NW,312,9.0,9.0,79,0.00,,,0.00,116,Wunderground v.1.15,2013-06-27 16:40:00,
2013-06-27 11:41:00,76.1,69.1,29.86,NW,317,12.0,12.0,79,0.00,,,0.00,118,Wunderground v.1.15,2013-06-27 16:41:00,
2013-06-27 11:42:00,76.1,69.1,29.86,NW,317,8.0,12.0,79,0.00,,,0.00,118,Wunderground v.1.15,2013-06-27 16:42:00,
2013-06-27 11:43:00,76.2,68.8,29.86,WNW,297,10.0,14.0,78,0.00,,,0.00,118,Wunderground v.1.15,2013-06-27 16:43:00,
2013-06-27 11:45:00,76.2,68.5,29.86,NW,306,7.0,14.0,77,0.00,,,0.00,116,Wunderground v.1.15,2013-06-27 16:45:00,
2013-06-27 11:46:00,76.3,68.9,29.86,WNW,296,9.0,14.0,78,0.00,,,0.00,111,Wunderground v.1.15,2013-06-27 16:46:00,
2013-06-27 11:47:00,76.4,69.0,29.86,NW,312,9.0,14.0,78,0.00,,,0.00,107,Wunderground v.1.15,2013-06-27 16:47:00,
2013-06-27 11:49:00,76.4,68.3,29.86,WNW,296,10.0,15.0,76,0.00,,,0.00,107,Wunderground v.1.15,2013-06-27 16:49:00,
2013-06-27 11:50:00,76.5,68.4,29.86,WNW,299,9.0,10.0,76,0.00,,,0.00,107,Wunderground v.1.15,2013-06-27 16:50:00,
2013-06-27 11:52:00,76.5,68.4,29.86,NW,308,3.0,12.0,76,0.00,,,0.00,120,Wunderground v.1.15,2013-06-27 16:52:00,
2013-06-27 11:54:00,76.5,68.4,29.86,NW,317,7.0,13.0,76,0.00,,,0.00,116,Wunderground v.1.15,2013-06-27 16:54:00,
2013-06-27 11:56:00,76.5,68.4,29.85,NNW,333,6.0,13.0,76,0.00,,,0.00,111,Wunderground v.1.15,2013-06-27 16:56:00,
2013-06-27 11:57:00,76.4,68.3,29.85,North,350,3.0,13.0,76,0.00,,,0.00,109,Wunderground v.1.15,2013-06-27 16:57:00,
2013-06-27 12:00:00,76.3,67.8,29.86,NW,321,9.0,9.0,75,0.00,,,0.00,107,Wunderground v.1.15,2013-06-27 17:00:00,
2013-06-27 12:01:00,76.4,67.9,29.86,NW,319,5.0,9.0,75,0.00,,,0.00,102,Wunderground v.1.15,2013-06-27 17:01:00,
2013-06-27 12:02:00,76.3,67.8,29.85,NNW,328,9.0,11.0,75,0.00,,,0.00,97,Wunderground v.1.15,2013-06-27 17:02:00,
2013-06-27 12:03:00,76.3,67.8,29.85,NNW,336,7.0,11.0,75,0.00,,,0.00,97,Wunderground v.1.15,2013-06-27 17:03:00,
2013-06-27 12:06:00,76.2,67.7,29.85,NW,306,6.0,11.0,75,0.00,,,0.00,109,Wunderground v.1.15,2013-06-27 17:06:00,
2013-06-27 12:07:00,76.1,68.0,29.85,NW,309,9.0,11.0,76,0.00,,,0.00,134,Wunderground v.1.15,2013-06-27 17:07:00,
2013-06-27 12:08:00,76.1,68.0,29.86,WNW,303,11.0,11.0,76,0.00,,,0.00,134,Wunderground v.1.15,2013-06-27 17:08:00,
2013-06-27 12:09:00,76.0,67.5,29.86,NW,306,11.0,12.0,75,0.00,,,0.00,134,Wunderground v.1.15,2013-06-27 17:09:00,
2013-06-27 12:11:00,76.0,67.9,29.86,NW,313,9.0,11.0,76,0.00,,,0.00,125,Wunderground v.1.15,2013-06-27 17:11:00,
2013-06-27 12:13:00,75.9,67.8,29.86,NW,319,7.0,11.0,76,0.00,,,0.00,125,Wunderground v.1.15,2013-06-27 17:13:00,
2013-06-27 12:15:00,75.8,68.1,29.86,NW,319,9.0,11.0,77,0.00,,,0.00,139,Wunderground v.1.15,2013-06-27 17:15:00,
2013-06-27 12:16:00,75.7,68.0,29.87,NW,318,7.0,11.0,77,0.00,,,0.00,139,Wunderground v.1.15,2013-06-27 17:16:00,
2013-06-27 12:17:00,75.7,68.0,29.87,WNW,297,7.0,11.0,77,0.00,,,0.00,139,Wunderground v.1.15,2013-06-27 17:17:00,
2013-06-27 12:20:00,75.4,67.7,29.87,WNW,296,10.0,10.0,77,0.00,,,0.00,111,Wunderground v.1.15,2013-06-27 17:20:00,
2013-06-27 12:21:00,75.3,68.0,29.87,NW,307,14.0,14.0,78,0.00,,,0.00,109,Wunderground v.1.15,2013-06-27 17:21:00,
2013-06-27 12:23:00,75.2,67.9,29.87,WNW,288,8.0,14.0,78,0.00,,,0.00,107,Wunderground v.1.15,2013-06-27 17:23:00,
2013-06-27 12:24:00,75.1,68.1,29.87,WNW,286,11.0,14.0,79,0.00,,,0.00,105,Wunderground v.1.15,2013-06-27 17:24:00,
2013-06-27 12:25:00,75.0,68.0,29.87,WNW,292,9.0,14.0,79,0.00,,,0.00,105,Wunderground v.1.15,2013-06-27 17:25:00,
2013-06-27 12:26:00,74.9,67.9,29.87,WNW,288,12.0,14.0,79,0.00,,,0.00,105,Wunderground v.1.15,2013-06-27 17:26:00,
2013-06-27 12:27:00,74.8,67.5,29.87,NW,317,11.0,15.0,78,0.00,,,0.00,105,Wunderground v.1.15,2013-06-27 17:27:00,
2013-06-27 12:29:00,74.7,67.4,29.87,WNW,294,11.0,15.0,78,0.00,,,0.00,105,Wunderground v.1.15,2013-06-27 17:29:00,
2013-06-27 12:30:00,74.6,67.3,29.87,NW,304,8.0,10.0,78,0.00,,,0.00,105,Wunderground v.1.15,2013-06-27 17:30:00,
2013-06-27 12:31:00,74.5,67.2,29.87,WNW,296,11.0,15.0,78,0.00,,,0.00,105,Wunderground v.1.15,2013-06-27 17:31:00,
2013-06-27 12:32:00,74.4,67.5,29.86,NW,304,11.0,15.0,79,0.00,,,0.00,107,Wunderground v.1.15,2013-06-27 17:32:00,
2013-06-27 12:33:00,74.4,67.5,29.86,WNW,294,7.0,15.0,79,0.00,,,0.00,109,Wunderground v.1.15,2013-06-27 17:33:00,
2013-06-27 12:35:00,74.2,67.3,29.86,WNW,294,11.0,15.0,79,0.00,,,0.01,114,Wunderground v.1.15,2013-06-27 17:35:00,
2013-06-27 12:37:00,74.1,67.5,29.86,WNW,296,12.0,15.0,80,0.00,,,0.01,118,Wunderground v.1.15,2013-06-27 17:37:00,
2013-06-27 12:39:00,73.9,67.3,29.86,WNW,299,14.0,17.0,80,0.00,,,0.01,130,Wunderground v.1.15,2013-06-27 17:39:00,
2013-06-27 12:40:00,73.8,67.6,29.86,NW,310,11.0,12.0,81,0.00,,,0.01,142,Wunderground v.1.15,2013-06-27 17:40:00,
2013-06-27 12:41:00,73.7,67.5,29.86,NW,306,11.0,14.0,81,0.00,,,0.01,149,Wunderground v.1.15,2013-06-27 17:41:00,
2013-06-27 12:42:00,73.6,67.4,29.86,WNW,300,12.0,14.0,81,0.00,,,0.01,156,Wunderground v.1.15,2013-06-27 17:42:00,
2013-06-27 12:43:00,73.5,67.7,29.86,WNW,290,8.0,14.0,82,0.00,,,0.01,156,Wunderground v.1.15,2013-06-27 17:43:00,
2013-06-27 12:45:00,73.4,67.6,29.86,WNW,288,12.0,14.0,82,0.00,,,0.01,186,Wunderground v.1.15,2013-06-27 17:45:00,
2013-06-27 12:46:00,73.3,67.5,29.86,WNW,290,11.0,14.0,82,0.00,,,0.01,204,Wunderground v.1.15,2013-06-27 17:46:00,
2013-06-27 12:48:00,73.2,67.7,29.86,WNW,297,10.0,14.0,83,0.00,,,0.01,211,Wunderground v.1.15,2013-06-27 17:48:00,
2013-06-27 12:50:00,73.2,68.1,29.86,WNW,296,8.0,10.0,84,0.00,,,0.01,206,Wunderground v.1.15,2013-06-27 17:50:00,
2013-06-27 12:51:00,73.1,68.0,29.86,WNW,288,8.0,11.0,84,0.00,,,0.01,206,Wunderground v.1.15,2013-06-27 17:51:00,
2013-06-27 12:53:00,73.0,67.9,29.85,WNW,289,8.0,11.0,84,0.00,,,0.01,237,Wunderground v.1.15,2013-06-27 17:53:00,
2013-06-27 12:54:00,73.0,67.9,29.85,NW,309,10.0,11.0,84,0.00,,,0.02,258,Wunderground v.1.15,2013-06-27 17:54:00,
2013-06-27 12:55:00,73.0,67.9,29.85,West,275,7.0,11.0,84,0.00,,,0.02,283,Wunderground v.1.15,2013-06-27 17:55:00,
2013-06-27 12:57:00,73.1,68.3,29.85,West,281,7.0,11.0,85,0.00,,,0.02,334,Wunderground v.1.15,2013-06-27 17:57:00,
2013-06-27 12:58:00,73.1,68.3,29.85,WNW,286,8.0,11.0,85,0.00,,,0.02,404,Wunderground v.1.15,2013-06-27 17:58:00,
2013-06-27 13:00:00,73.2,68.4,29.85,WNW,286,6.0,9.0,85,0.00,,,0.02,499,Wunderground v.1.15,2013-06-27 18:00:00,
2013-06-27 13:01:00,73.5,69.4,29.84,WNW,284,7.0,9.0,87,0.00,,,0.02,499,Wunderground v.1.15,2013-06-27 18:01:00,
2013-06-27 13:02:00,73.5,69.1,29.84,WNW,288,6.0,9.0,86,0.00,,,0.02,499,Wunderground v.1.15,2013-06-27 18:02:00,
2013-06-27 13:03:00,73.7,69.2,29.84,WNW,288,8.0,9.0,86,0.00,,,0.02,454,Wunderground v.1.15,2013-06-27 18:03:00,
2013-06-27 13:04:00,73.8,69.3,29.84,WNW,297,6.0,9.0,86,0.00,,,0.02,454,Wunderground v.1.15,2013-06-27 18:04:00,
2013-06-27 13:06:00,74.0,68.9,29.84,WNW,302,5.0,9.0,84,0.00,,,0.02,376,Wunderground v.1.15,2013-06-27 18:06:00,
2013-06-27 13:07:00,74.1,69.3,29.84,WNW,291,5.0,9.0,85,0.00,,,0.02,359,Wunderground v.1.15,2013-06-27 18:07:00,
2013-06-27 13:10:00,74.2,69.4,29.84,West,280,7.0,7.0,85,0.00,,,0.02,350,Wunderground v.1.15,2013-06-27 18:10:00,
2013-06-27 13:11:00,74.4,69.6,29.84,WNW,298,6.0,7.0,85,0.00,,,0.02,299,Wunderground v.1.15,2013-06-27 18:11:00,
2013-06-27 13:13:00,74.4,69.2,29.84,WNW,293,6.0,7.0,84,0.00,,,0.02,272,Wunderground v.1.15,2013-06-27 18:13:00,
2013-06-27 13:14:00,74.4,69.2,29.84,WNW,293,5.0,7.0,84,0.00,,,0.02,264,Wunderground v.1.15,2013-06-27 18:14:00,
2013-06-27 13:15:00,74.4,69.2,29.84,WNW,284,5.0,7.0,84,0.00,,,0.02,255,Wunderground v.1.15,2013-06-27 18:15:00,
2013-06-27 13:19:00,74.5,69.0,29.84,WNW,285,4.0,7.0,83,0.00,,,0.02,285,Wunderground v.1.15,2013-06-27 18:19:00,
2013-06-27 13:20:00,74.5,69.0,29.84,WNW,292,3.0,5.0,83,0.00,,,0.02,309,Wunderground v.1.15,2013-06-27 18:20:00,
2013-06-27 13:21:00,74.6,69.4,29.84,WNW,288,5.0,5.0,84,0.00,,,0.02,339,Wunderground v.1.15,2013-06-27 18:21:00,
2013-06-27 13:22:00,74.6,69.4,29.84,WNW,287,4.0,5.0,84,0.00,,,0.02,339,Wunderground v.1.15,2013-06-27 18:22:00,
2013-06-27 13:26:00,74.8,70.0,29.84,West,281,7.0,7.0,85,0.00,,,0.02,399,Wunderground v.1.15,2013-06-27 18:26:00,
2013-06-27 13:28:00,75.0,69.8,29.84,WNW,292,7.0,7.0,84,0.00,,,0.02,417,Wunderground v.1.15,2013-06-27 18:28:00,
2013-06-27 13:30:00,75.2,70.4,29.84,WNW,284,7.0,7.0,85,0.00,,,0.02,434,Wunderground v.1.15,2013-06-27 18:30:00,
2013-06-27 13:31:00,75.4,70.2,29.84,West,272,8.0,8.0,84,0.00,,,0.02,429,Wunderground v.1.15,2013-06-27 18:31:00,
2013-06-27 13:32:00,75.5,70.0,29.84,West,279,6.0,9.0,83,0.00,,,0.02,448,Wunderground v.1.15,2013-06-27 18:32:00,
2013-06-27 13:33:00,75.6,69.7,29.84,West,271,6.0,9.0,82,0.00,,,0.02,459,Wunderground v.1.15,2013-06-27 18:33:00,
2013-06-27 13:35:00,76.0,70.5,29.83,West,260,6.0,9.0,83,0.00,,,0.02,469,Wunderground v.1.15,2013-06-27 18:35:00,
2013-06-27 13:36:00,76.0,70.5,29.83,West,265,5.0,9.0,83,0.00,,,0.02,425,Wunderground v.1.15,2013-06-27 18:36:00,
2013-06-27 13:38:00,76.3,70.0,29.83,West,266,7.0,9.0,81,0.00,,,0.02,313,Wunderground v.1.15,2013-06-27 18:38:00,
2013-06-27 13:39:00,76.3,70.0,29.83,West,265,8.0,9.0,81,0.00,,,0.02,313,Wunderground v.1.15,2013-06-27 18:39:00,
2013-06-27 13:41:00,76.4,70.1,29.83,West,278,7.0,8.0,81,0.00,,,0.02,234,Wunderground v.1.15,2013-06-27 18:41:00,
2013-06-27 13:42:00,76.4,69.8,29.83,West,267,4.0,8.0,80,0.00,,,0.02,220,Wunderground v.1.15,2013-06-27 18:42:00,
2013-06-27 13:43:00,76.4,70.1,29.83,WNW,292,7.0,8.0,81,0.00,,,0.02,202,Wunderground v.1.15,2013-06-27 18:43:00,
2013-06-27 13:45:00,76.4,70.1,29.83,West,279,6.0,8.0,81,0.00,,,0.02,188,Wunderground v.1.15,2013-06-27 18:45:00,
2013-06-27 13:47:00,76.4,70.1,29.84,WNW,282,8.0,8.0,81,0.00,,,0.02,176,Wunderground v.1.15,2013-06-27 18:47:00,
2013-06-27 13:48:00,76.4,70.5,29.84,West,275,7.0,8.0,82,0.00,,,0.02,171,Wunderground v.1.15,2013-06-27 18:48:00,
2013-06-27 13:49:00,76.4,70.5,29.84,WNW,284,6.0,8.0,82,0.00,,,0.02,171,Wunderground v.1.15,2013-06-27 18:49:00,
2013-06-27 13:50:00,76.3,70.0,29.84,West,275,7.0,7.0,81,0.00,,,0.02,181,Wunderground v.1.15,2013-06-27 18:50:00,
2013-06-27 13:53:00,76.1,69.8,29.84,WNW,285,9.0,9.0,81,0.00,,,0.02,216,Wunderground v.1.15,2013-06-27 18:53:00,
2013-06-27 13:54:00,76.1,69.5,29.84,WNW,286,7.0,9.0,80,0.00,,,0.02,269,Wunderground v.1.15,2013-06-27 18:54:00,
2013-06-27 13:55:00,76.1,69.8,29.84,WNW,285,6.0,9.0,81,0.00,,,0.02,269,Wunderground v.1.15,2013-06-27 18:55:00,
2013-06-27 13:56:00,76.1,70.2,29.84,WNW,285,5.0,9.0,82,0.00,,,0.02,348,Wunderground v.1.15,2013-06-27 18:56:00,
2013-06-27 13:59:00,76.2,70.3,29.84,WNW,298,5.0,9.0,82,0.00,,,0.02,436,Wunderground v.1.15,2013-06-27 18:59:00,
2013-06-27 14:01:00,76.5,70.9,29.83,WNW,286,5.0,6.0,83,0.00,,,0.02,424,Wunderground v.1.15,2013-06-27 19:01:00,
2013-06-27 14:02:00,76.6,70.7,29.83,WNW,289,5.0,6.0,82,0.00,,,0.02,415,Wunderground v.1.15,2013-06-27 19:02:00,
2013-06-27 14:04:00,76.8,70.9,29.83,WNW,301,6.0,8.0,82,0.00,,,0.02,401,Wunderground v.1.15,2013-06-27 19:04:00,
2013-06-27 14:05:00,76.9,71.0,29.83,West,280,7.0,8.0,82,0.00,,,0.02,401,Wunderground v.1.15,2013-06-27 19:05:00,
2013-06-27 14:06:00,77.0,70.7,29.83,WNW,297,8.0,8.0,81,0.00,,,0.02,499,Wunderground v.1.15,2013-06-27 19:06:00,
2013-06-27 14:09:00,77.3,71.4,29.83,WNW,299,9.0,9.0,82,0.00,,,0.02,1169,Wunderground v.1.15,2013-06-27 19:09:00,
2013-06-27 14:10:00,77.5,70.8,29.83,WNW,292,7.0,9.0,80,0.00,,,0.02,1169,Wunderground v.1.15,2013-06-27 19:10:00,
2013-06-27 14:12:00,78.4,71.7,29.83,WNW,292,6.0,9.0,80,0.00,,,0.02,1053,Wunderground v.1.15,2013-06-27 19:12:00,
2013-06-27 14:14:00,79.0,71.2,29.83,WNW,298,9.0,10.0,77,0.00,,,0.02,997,Wunderground v.1.15,2013-06-27 19:14:00,
2013-06-27 14:15:00,79.2,71.4,29.83,WNW,288,9.0,10.0,77,0.00,,,0.02,988,Wunderground v.1.15,2013-06-27 19:15:00,
2013-06-27 14:16:00,79.3,71.5,29.83,WNW,284,9.0,10.0,77,0.00,,,0.02,981,Wunderground v.1.15,2013-06-27 19:16:00,
2013-06-27 14:18:00,79.7,71.8,29.83,WNW,298,11.0,11.0,77,0.00,,,0.02,972,Wunderground v.1.15,2013-06-27 19:18:00,
2013-06-27 14:20:00,80.1,70.7,29.83,NW,309,8.0,13.0,73,0.00,,,0.02,967,Wunderground v.1.15,2013-06-27 19:20:00,
2013-06-27 14:21:00,80.2,70.8,29.83,NW,310,6.0,8.0,73,0.00,,,0.02,967,Wunderground v.1.15,2013-06-27 19:21:00,
2013-06-27 14:24:00,80.6,69.9,29.83,NW,313,12.0,16.0,70,0.00,,,0.02,958,Wunderground v.1.15,2013-06-27 19:24:00,
2013-06-27 14:26:00,80.8,69.7,29.83,NW,304,13.0,16.0,69,0.00,,,0.02,956,Wunderground v.1.15,2013-06-27 19:26:00,
2013-06-27 14:27:00,80.9,70.2,29.83,NW,311,9.0,16.0,70,0.00,,,0.02,956,Wunderground v.1.15,2013-06-27 19:27:00,
2013-06-27 14:28:00,80.9,70.2,29.83,WNW,301,11.0,16.0,70,0.00,,,0.02,947,Wunderground v.1.15,2013-06-27 19:28:00,
2013-06-27 14:31:00,81.2,69.6,29.82,NNW,338,6.0,11.0,68,0.00,,,0.02,942,Wunderground v.1.15,2013-06-27 19:31:00,
2013-06-27 14:33:00,81.4,70.2,29.82,NW,313,10.0,11.0,69,0.00,,,0.02,940,Wunderground v.1.15,2013-06-27 19:33:00,
2013-06-27 14:34:00,81.6,70.9,29.82,WNW,298,15.0,15.0,70,0.00,,,0.02,962,Wunderground v.1.15,2013-06-27 19:34:00,
2013-06-27 14:36:00,81.7,69.2,29.82,WNW,292,10.0,15.0,66,0.00,,,0.02,983,Wunderground v.1.15,2013-06-27 19:36:00,
2013-06-27 14:37:00,81.8,69.3,29.83,WNW,292,12.0,15.0,66,0.00,,,0.02,933,Wunderground v.1.15,2013-06-27 19:37:00,
2013-06-27 14:39:00,81.9,69.4,29.83,WNW,290,15.0,15.0,66,0.00,,,0.02,1005,Wunderground v.1.15,2013-06-27 19:39:00,
2013-06-27 14:40:00,81.9,69.9,29.83,WNW,300,16.0,16.0,67,0.00,,,0.02,1005,Wunderground v.1.15,2013-06-27 19:40:00,
2013-06-27 14:42:00,82.0,70.0,29.82,NW,326,11.0,12.0,67,0.00,,,0.02,981,Wunderground v.1.15,2013-06-27 19:42:00,
2013-06-27 14:45:00,82.3,70.7,29.82,WNW,293,13.0,14.0,68,0.00,,,0.02,1028,Wunderground v.1.15,2013-06-27 19:45:00,
2013-06-27 14:46:00,82.4,69.9,29.82,NW,315,10.0,14.0,66,0.00,,,0.02,998,Wunderground v.1.15,2013-06-27 19:46:00,
2013-06-27 14:47:00,82.4,70.3,29.82,WNW,286,12.0,14.0,67,0.00,,,0.02,998,Wunderground v.1.15,2013-06-27 19:47:00,
2013-06-27 14:48:00,82.4,70.3,29.82,NW,315,9.0,14.0,67,0.00,,,0.02,937,Wunderground v.1.15,2013-06-27 19:48:00,
2013-06-27 14:50:00,82.5,71.3,29.82,WNW,292,12.0,14.0,69,0.00,,,0.02,925,Wunderground v.1.15,2013-06-27 19:50:00,
2013-06-27 14:52:00,82.5,70.4,29.82,WNW,284,12.0,14.0,67,0.00,,,0.02,923,Wunderground v.1.15,2013-06-27 19:52:00,
2013-06-27 14:53:00,82.7,69.7,29.82,WNW,298,13.0,14.0,65,0.00,,,0.02,923,Wunderground v.1.15,2013-06-27 19:53:00,
2013-06-27 14:56:00,82.7,69.3,29.82,WNW,283,17.0,17.0,64,0.00,,,0.02,909,Wunderground v.1.15,2013-06-27 19:56:00,
2013-06-27 14:57:00,82.7,68.4,29.82,WNW,298,14.0,17.0,62,0.00,,,0.02,911,Wunderground v.1.15,2013-06-27 19:57:00,
2013-06-27 14:59:00,82.7,69.3,29.82,West,277,11.0,17.0,64,0.00,,,0.02,909,Wunderground v.1.15,2013-06-27 19:59:00,
2013-06-27 15:00:00,82.7,69.7,29.83,WNW,286,13.0,16.0,65,0.00,,,0.02,907,Wunderground v.1.15,2013-06-27 20:00:00,
2013-06-27 15:01:00,82.7,69.7,29.83,WNW,302,12.0,16.0,65,0.00,,,0.02,898,Wunderground v.1.15,2013-06-27 20:01:00,
2013-06-27 15:02:00,82.8,69.8,29.83,WNW,298,11.0,16.0,65,0.00,,,0.02,898,Wunderground v.1.15,2013-06-27 20:02:00,
2013-06-27 15:06:00,83.1,70.1,29.82,WNW,290,13.0,16.0,65,0.00,,,0.02,884,Wunderground v.1.15,2013-06-27 20:06:00,
2013-06-27 15:07:00,83.1,70.1,29.82,WNW,285,11.0,16.0,65,0.00,,,0.02,884,Wunderground v.1.15,2013-06-27 20:07:00,
2013-06-27 15:08:00,83.2,70.7,29.82,WNW,290,11.0,16.0,66,0.00,,,0.02,877,Wunderground v.1.15,2013-06-27 20:08:00,
2013-06-27 15:11:00,83.4,69.5,29.82,NW,316,11.0,13.0,63,0.00,,,0.02,867,Wunderground v.1.15,2013-06-27 20:11:00,
2013-06-27 15:12:00,83.4,70.4,29.82,NW,313,9.0,16.0,65,0.00,,,0.02,865,Wunderground v.1.15,2013-06-27 20:12:00,
2013-06-27 15:13:00,83.4,69.9,29.82,WNW,283,11.0,16.0,64,0.00,,,0.02,867,Wunderground v.1.15,2013-06-27 20:13:00,
2013-06-27 15:15:00,83.5,70.0,29.82,NW,310,10.0,16.0,64,0.00,,,0.02,860,Wunderground v.1.15,2013-06-27 20:15:00,
2013-06-27 15:18:00,83.6,69.2,29.82,WNW,301,10.0,16.0,62,0.00,,,0.02,863,Wunderground v.1.15,2013-06-27 20:18:00,
2013-06-27 15:19:00,83.7,70.2,29.82,WNW,294,8.0,16.0,64,0.00,,,0.02,858,Wunderground v.1.15,2013-06-27 20:19:00,
2013-06-27 15:20:00,83.7,70.2,29.82,WNW,303,8.0,12.0,64,0.00,,,0.02,858,Wunderground v.1.15,2013-06-27 20:20:00,
2013-06-27 15:21:00,84.0,70.0,29.81,WNW,299,14.0,14.0,63,0.00,,,0.02,861,Wunderground v.1.15,2013-06-27 20:21:00,
2013-06-27 15:24:00,84.1,70.6,29.82,NW,313,10.0,14.0,64,0.00,,,0.02,854,Wunderground v.1.15,2013-06-27 20:24:00,
2013-06-27 15:25:00,84.1,70.1,29.82,NW,319,12.0,14.0,63,0.00,,,0.02,853,Wunderground v.1.15,2013-06-27 20:25:00,
2013-06-27 15:27:00,84.1,69.7,29.82,WNW,302,14.0,14.0,62,0.00,,,0.02,849,Wunderground v.1.15,2013-06-27 20:27:00,
2013-06-27 15:30:00,84.2,68.8,29.82,WNW,288,14.0,14.0,60,0.00,,,0.02,837,Wunderground v.1.15,2013-06-27 20:30:00,
2013-06-27 15:31:00,84.3,69.4,29.82,WNW,294,13.0,14.0,61,0.00,,,0.02,837,Wunderground v.1.15,2013-06-27 20:31:00,
2013-06-27 15:33:00,84.4,69.5,29.82,NW,320,11.0,16.0,61,0.00,,,0.02,835,Wunderground v.1.15,2013-06-27 20:33:00,
2013-06-27 15:35:00,84.4,70.4,29.82,NW,309,8.0,16.0,63,0.00,,,0.02,828,Wunderground v.1.15,2013-06-27 20:35:00,
2013-06-27 15:38:00,84.5,70.0,29.82,NW,316,11.0,16.0,62,0.00,,,0.02,826,Wunderground v.1.15,2013-06-27 20:38:00,
2013-06-27 15:39:00,84.5,69.6,29.82,NW,311,10.0,16.0,61,0.00,,,0.02,826,Wunderground v.1.15,2013-06-27 20:39:00,
2013-06-27 15:42:00,84.6,69.7,29.82,WNW,299,11.0,13.0,61,0.00,,,0.02,860,Wunderground v.1.15,2013-06-27 20:42:00,
2013-06-27 15:44:00,84.8,70.3,29.82,NW,304,11.0,13.0,62,0.00,,,0.02,870,Wunderground v.1.15,2013-06-27 20:44:00,
2013-06-27 15:47:00,85.0,69.6,29.82,WNW,298,10.0,15.0,60,0.00,,,0.02,853,Wunderground v.1.15,2013-06-27 20:47:00,
2013-06-27 15:48:00,85.1,69.2,29.82,NW,311,10.0,15.0,59,0.00,,,0.02,853,Wunderground v.1.15,2013-06-27 20:48:00,
2013-06-27 15:50:00,85.2,69.3,29.82,WNW,300,8.0,15.0,59,0.00,,,0.02,659,Wunderground v.1.15,2013-06-27 20:50:00,
2013-06-27 15:52:00,85.0,69.6,29.82,WNW,291,12.0,12.0,60,0.00,,,0.02,526,Wunderground v.1.15,2013-06-27 20:52:00,
2013-06-27 15:54:00,85.0,69.6,29.82,WNW,288,9.0,12.0,60,0.00,,,0.02,526,Wunderground v.1.15,2013-06-27 20:54:00,
2013-06-27 15:55:00,84.9,69.9,29.82,WNW,298,10.0,12.0,61,0.00,,,0.02,487,Wunderground v.1.15,2013-06-27 20:55:00,
2013-06-27 15:56:00,84.9,70.4,29.82,WNW,294,11.0,12.0,62,0.00,,,0.02,415,Wunderground v.1.15,2013-06-27 20:56:00,
2013-06-27 15:59:00,84.7,70.7,29.82,WNW,285,12.0,12.0,63,0.00,,,0.02,410,Wunderground v.1.15,2013-06-27 20:59:00,
2013-06-27 16:00:00,84.8,70.3,29.82,West,272,13.0,13.0,62,0.00,,,0.02,410,Wunderground v.1.15,2013-06-27 21:00:00,
2013-06-27 16:01:00,85.0,70.5,29.82,WNW,299,13.0,13.0,62,0.00,,,0.02,410,Wunderground v.1.15,2013-06-27 21:01:00,
2013-06-27 16:04:00,85.5,70.5,29.82,WNW,298,12.0,13.0,61,0.00,,,0.02,942,Wunderground v.1.15,2013-06-27 21:04:00,
2013-06-27 16:07:00,85.5,69.5,29.82,WNW,295,11.0,13.0,59,0.00,,,0.02,942,Wunderground v.1.15,2013-06-27 21:07:00,
2013-06-27 16:09:00,85.4,69.9,29.82,NNW,327,9.0,13.0,60,0.00,,,0.02,427,Wunderground v.1.15,2013-06-27 21:09:00,
2013-06-27 16:12:00,85.4,69.9,29.82,NW,304,8.0,12.0,60,0.00,,,0.02,427,Wunderground v.1.15,2013-06-27 21:12:00,
2013-06-27 16:15:00,85.4,69.9,29.82,WNW,303,12.0,16.0,60,0.00,,,0.02,919,Wunderground v.1.15,2013-06-27 21:15:00,
2013-06-27 16:17:00,85.6,69.6,29.81,WNW,294,14.0,16.0,59,0.00,,,0.02,976,Wunderground v.1.15,2013-06-27 21:17:00,
2013-06-27 16:18:00,85.6,69.1,29.82,NW,314,10.0,16.0,58,0.00,,,0.02,976,Wunderground v.1.15,2013-06-27 21:18:00,
2013-06-27 16:19:00,85.6,70.1,29.82,NW,309,9.0,16.0,60,0.00,,,0.02,279,Wunderground v.1.15,2013-06-27 21:19:00,
2013-06-27 16:21:00,85.3,69.3,29.82,WNW,298,9.0,11.0,59,0.00,,,0.02,283,Wunderground v.1.15,2013-06-27 21:21:00,
2013-06-27 16:23:00,85.0,69.6,29.82,WNW,294,9.0,14.0,60,0.00,,,0.02,283,Wunderground v.1.15,2013-06-27 21:23:00,
2013-06-27 16:24:00,85.0,70.0,29.82,NW,304,8.0,14.0,61,0.00,,,0.02,283,Wunderground v.1.15,2013-06-27 21:24:00,
2013-06-27 16:27:00,85.1,71.1,29.82,WNW,298,8.0,14.0,63,0.00,,,0.02,563,Wunderground v.1.15,2013-06-27 21:27:00,
2013-06-27 16:30:00,85.5,71.9,29.82,WNW,299,16.0,16.0,64,0.00,,,0.02,329,Wunderground v.1.15,2013-06-27 21:30:00,
2013-06-27 16:31:00,85.5,71.0,29.81,WNW,294,12.0,16.0,62,0.00,,,0.02,329,Wunderground v.1.15,2013-06-27 21:31:00,
2013-06-27 16:32:00,85.6,70.6,29.81,NW,304,12.0,16.0,61,0.00,,,0.02,849,Wunderground v.1.15,2013-06-27 21:32:00,
2013-06-27 16:35:00,85.9,70.9,29.81,NW,306,14.0,17.0,61,0.00,,,0.02,810,Wunderground v.1.15,2013-06-27 21:35:00,
2013-06-27 16:38:00,86.3,71.3,29.81,NW,305,9.0,17.0,61,0.00,,,0.02,817,Wunderground v.1.15,2013-06-27 21:38:00,
2013-06-27 16:39:00,86.4,71.4,29.81,NW,305,12.0,17.0,61,0.00,,,0.02,798,Wunderground v.1.15,2013-06-27 21:39:00,
2013-06-27 16:41:00,86.6,70.6,29.81,NW,304,11.0,16.0,59,0.00,,,0.02,780,Wunderground v.1.15,2013-06-27 21:41:00,
2013-06-27 16:44:00,86.7,70.7,29.81,WNW,294,10.0,16.0,59,0.00,,,0.02,835,Wunderground v.1.15,2013-06-27 21:44:00,
2013-06-27 16:45:00,86.7,71.2,29.81,NW,316,10.0,16.0,60,0.00,,,0.02,279,Wunderground v.1.15,2013-06-27 21:45:00,
2013-06-27 16:49:00,86.2,69.7,29.81,NW,315,12.0,16.0,58,0.00,,,0.02,452,Wunderground v.1.15,2013-06-27 21:49:00,
2013-06-27 16:50:00,86.2,70.2,29.81,NW,304,12.0,12.0,59,0.00,,,0.02,452,Wunderground v.1.15,2013-06-27 21:50:00,
2013-06-27 16:51:00,86.1,70.1,29.81,WNW,294,11.0,13.0,59,0.00,,,0.02,545,Wunderground v.1.15,2013-06-27 21:51:00,
2013-06-27 16:55:00,86.2,69.7,29.81,West,281,14.0,16.0,58,0.00,,,0.02,591,Wunderground v.1.15,2013-06-27 21:55:00,
2013-06-27 16:57:00,86.3,69.8,29.81,WNW,296,12.0,16.0,58,0.00,,,0.02,591,Wunderground v.1.15,2013-06-27 21:57:00,
2013-06-27 16:58:00,86.4,69.9,29.81,WNW,297,15.0,16.0,58,0.00,,,0.02,424,Wunderground v.1.15,2013-06-27 21:58:00,
2013-06-27 17:02:00,86.1,69.6,29.81,WNW,300,12.0,13.0,58,0.00,,,0.02,288,Wunderground v.1.15,2013-06-27 22:02:00,
2013-06-27 17:03:00,86.0,69.5,29.81,WNW,296,11.0,16.0,58,0.00,,,0.02,357,Wunderground v.1.15,2013-06-27 22:03:00,
2013-06-27 17:08:00,85.8,68.8,29.80,NW,306,10.0,16.0,57,0.00,,,0.02,355,Wunderground v.1.15,2013-06-27 22:08:00,
2013-06-27 17:09:00,85.8,69.8,29.80,NW,310,11.0,16.0,59,0.00,,,0.02,352,Wunderground v.1.15,2013-06-27 22:09:00,
2013-06-27 17:10:00,85.7,69.7,29.80,WNW,297,12.0,12.0,59,0.00,,,0.02,357,Wunderground v.1.15,2013-06-27 22:10:00,
2013-06-27 17:14:00,85.4,68.4,29.80,WNW,303,10.0,15.0,57,0.00,,,0.02,494,Wunderground v.1.15,2013-06-27 22:14:00,
2013-06-27 17:15:00,85.4,69.4,29.80,WNW,292,8.0,15.0,59,0.00,,,0.02,494,Wunderground v.1.15,2013-06-27 22:15:00,
2013-06-27 17:16:00,85.4,68.9,29.80,WNW,300,9.0,15.0,58,0.00,,,0.02,494,Wunderground v.1.15,2013-06-27 22:16:00,
2013-06-27 17:20:00,85.9,69.4,29.80,WNW,299,10.0,11.0,58,0.00,,,0.02,624,Wunderground v.1.15,2013-06-27 22:20:00,
2013-06-27 17:21:00,85.9,69.4,29.80,WNW,300,9.0,11.0,58,0.00,,,0.02,624,Wunderground v.1.15,2013-06-27 22:21:00,
2013-06-27 17:22:00,86.1,68.6,29.80,West,277,12.0,14.0,56,0.00,,,0.02,610,Wunderground v.1.15,2013-06-27 22:22:00,
2013-06-27 17:26:00,86.5,70.0,29.80,WNW,286,10.0,14.0,58,0.00,,,0.02,589,Wunderground v.1.15,2013-06-27 22:26:00,
2013-06-27 17:27:00,86.6,69.0,29.79,WNW,286,12.0,14.0,56,0.00,,,0.02,584,Wunderground v.1.15,2013-06-27 22:27:00,
2013-06-27 17:28:00,86.6,69.6,29.79,WNW,286,9.0,14.0,57,0.00,,,0.02,592,Wunderground v.1.15,2013-06-27 22:28:00,
2013-06-27 17:32:00,86.4,68.8,29.79,WNW,293,12.0,15.0,56,0.00,,,0.02,610,Wunderground v.1.15,2013-06-27 22:32:00,
2013-06-27 17:33:00,86.4,68.3,29.79,WNW,288,12.0,15.0,55,0.00,,,0.02,587,Wunderground v.1.15,2013-06-27 22:33:00,
2013-06-27 17:34:00,86.4,67.8,29.79,WNW,299,15.0,15.0,54,0.00,,,0.02,587,Wunderground v.1.15,2013-06-27 22:34:00,
2013-06-27 17:40:00,86.5,67.9,29.79,WNW,303,8.0,11.0,54,0.00,,,0.02,596,Wunderground v.1.15,2013-06-27 22:40:00,
2013-06-27 17:41:00,86.5,68.4,29.79,NW,308,12.0,12.0,55,0.00,,,0.02,596,Wunderground v.1.15,2013-06-27 22:41:00,
2013-06-27 17:43:00,86.5,66.8,29.79,NW,313,14.0,16.0,52,0.00,,,0.02,568,Wunderground v.1.15,2013-06-27 22:43:00,
2013-06-27 17:45:00,86.3,65.5,29.79,WNW,285,14.0,17.0,50,0.00,,,0.02,538,Wunderground v.1.15,2013-06-27 22:45:00,
2013-06-27 17:47:00,86.2,64.2,29.79,NW,321,14.0,17.0,48,0.00,,,0.02,526,Wunderground v.1.15,2013-06-27 22:47:00,
2013-06-27 17:48:00,86.2,64.8,29.79,NNW,334,10.0,17.0,49,0.00,,,0.02,517,Wunderground v.1.15,2013-06-27 22:48:00,
2013-06-27 17:52:00,86.1,64.7,29.79,NW,304,13.0,15.0,49,0.00,,,0.02,503,Wunderground v.1.15,2013-06-27 22:52:00,
2013-06-27 17:53:00,86.1,64.7,29.79,WNW,301,7.0,15.0,49,0.00,,,0.02,499,Wunderground v.1.15,2013-06-27 22:53:00,
2013-06-27 17:56:00,86.2,65.4,29.79,NW,306,11.0,15.0,50,0.00,,,0.02,485,Wunderground v.1.15,2013-06-27 22:56:00,
2013-06-27 17:57:00,86.1,65.3,29.79,WNW,286,9.0,15.0,50,0.00,,,0.02,482,Wunderground v.1.15,2013-06-27 22:57:00,
2013-06-27 17:58:00,86.2,65.9,29.78,WNW,302,6.0,15.0,51,0.00,,,0.02,478,Wunderground v.1.15,2013-06-27 22:58:00,
2013-06-27 18:01:00,86.2,64.8,29.78,NNW,327,8.0,12.0,49,0.00,,,0.02,468,Wunderground v.1.15,2013-06-27 23:01:00,
2013-06-27 18:02:00,86.2,64.8,29.78,NW,321,6.0,12.0,49,0.00,,,0.02,468,Wunderground v.1.15,2013-06-27 23:02:00,
2013-06-27 18:03:00,86.1,65.3,29.78,WNW,295,11.0,14.0,50,0.00,,,0.02,462,Wunderground v.1.15,2013-06-27 23:03:00,
2013-06-27 18:04:00,86.1,65.3,29.78,NW,315,12.0,14.0,50,0.00,,,0.02,461,Wunderground v.1.15,2013-06-27 23:04:00,
2013-06-27 18:08:00,86.0,62.8,29.78,NW,317,10.0,16.0,46,0.00,,,0.02,445,Wunderground v.1.15,2013-06-27 23:08:00,
2013-06-27 18:09:00,86.0,62.8,29.78,NW,304,9.0,16.0,46,0.00,,,0.02,445,Wunderground v.1.15,2013-06-27 23:09:00,
2013-06-27 18:10:00,86.0,62.8,29.78,NW,306,10.0,11.0,46,0.00,,,0.02,439,Wunderground v.1.15,2013-06-27 23:10:00,
2013-06-27 18:15:00,85.9,65.1,29.78,NW,318,10.0,14.0,50,0.00,,,0.02,427,Wunderground v.1.15,2013-06-27 23:15:00,
2013-06-27 18:16:00,85.8,65.6,29.78,WNW,293,13.0,14.0,51,0.00,,,0.02,427,Wunderground v.1.15,2013-06-27 23:16:00,
2013-06-27 18:17:00,85.8,65.0,29.78,NW,313,10.0,14.0,50,0.00,,,0.02,420,Wunderground v.1.15,2013-06-27 23:17:00,
2013-06-27 18:21:00,85.8,65.0,29.78,NW,309,11.0,14.0,50,0.00,,,0.02,404,Wunderground v.1.15,2013-06-27 23:21:00,
2013-06-27 18:22:00,85.7,64.9,29.78,NW,319,13.0,14.0,50,0.00,,,0.02,404,Wunderground v.1.15,2013-06-27 23:22:00,
2013-06-27 18:27:00,85.6,66.0,29.78,NW,306,11.0,14.0,52,0.00,,,0.02,385,Wunderground v.1.15,2013-06-27 23:27:00,
2013-06-27 18:28:00,85.6,65.4,29.78,NW,306,9.0,14.0,51,0.00,,,0.02,383,Wunderground v.1.15,2013-06-27 23:28:00,
2013-06-27 18:33:00,85.5,65.9,29.78,WNW,300,6.0,14.0,52,0.00,,,0.02,367,Wunderground v.1.15,2013-06-27 23:33:00,
2013-06-27 18:34:00,85.5,66.4,29.78,NW,313,10.0,14.0,53,0.00,,,0.02,364,Wunderground v.1.15,2013-06-27 23:34:00,
2013-06-27 18:38:00,85.4,66.3,29.77,NW,308,5.0,14.0,53,0.00,,,0.02,353,Wunderground v.1.15,2013-06-27 23:38:00,
2013-06-27 18:39:00,85.4,66.3,29.78,WNW,293,9.0,14.0,53,0.00,,,0.02,346,Wunderground v.1.15,2013-06-27 23:39:00,
2013-06-27 18:40:00,85.4,66.3,29.78,NW,305,10.0,10.0,53,0.00,,,0.02,346,Wunderground v.1.15,2013-06-27 23:40:00,
2013-06-27 18:42:00,85.4,65.8,29.78,WNW,301,11.0,13.0,52,0.00,,,0.02,339,Wunderground v.1.15,2013-06-27 23:42:00,
2013-06-27 18:44:00,85.4,66.3,29.77,NW,319,10.0,13.0,53,0.00,,,0.02,332,Wunderground v.1.15,2013-06-27 23:44:00,
2013-06-27 18:47:00,85.3,66.8,29.78,WNW,296,10.0,13.0,54,0.00,,,0.02,325,Wunderground v.1.15,2013-06-27 23:47:00,
2013-06-27 18:48:00,85.3,66.8,29.77,WNW,298,7.0,13.0,54,0.00,,,0.02,322,Wunderground v.1.15,2013-06-27 23:48:00,
2013-06-27 18:50:00,85.3,67.8,29.77,NW,310,8.0,10.0,56,0.00,,,0.02,315,Wunderground v.1.15,2013-06-27 23:50:00,
2013-06-27 18:52:00,85.3,67.3,29.77,NW,309,10.0,12.0,55,0.00,,,0.02,308,Wunderground v.1.15,2013-06-27 23:52:00,
2013-06-27 18:53:00,85.3,67.8,29.77,NW,307,9.0,12.0,56,0.00,,,0.02,308,Wunderground v.1.15,2013-06-27 23:53:00,
2013-06-27 18:54:00,85.3,67.8,29.77,WNW,286,9.0,12.0,56,0.00,,,0.02,301,Wunderground v.1.15,2013-06-27 23:54:00,
2013-06-27 18:55:00,85.3,68.3,29.77,WNW,299,10.0,12.0,57,0.00,,,0.02,297,Wunderground v.1.15,2013-06-27 23:55:00,
2013-06-27 18:58:00,85.1,67.6,29.77,WNW,290,10.0,12.0,56,0.00,,,0.02,290,Wunderground v.1.15,2013-06-27 23:58:00,
2013-06-27 18:59:00,85.2,67.7,29.77,WNW,300,8.0,12.0,56,0.00,,,0.02,290,Wunderground v.1.15,2013-06-27 23:59:00,
2013-06-27 19:00:00,85.1,68.7,29.77,WNW,296,6.0,9.0,58,0.00,,,0.02,281,Wunderground v.1.15,2013-06-28 00:00:00,
2013-06-27 19:02:00,85.1,67.6,29.77,WNW,298,10.0,10.0,56,0.00,,,0.02,276,Wunderground v.1.15,2013-06-28 00:02:00,
2013-06-27 19:03:00,85.0,67.5,29.77,NW,304,11.0,14.0,56,0.00,,,0.02,271,Wunderground v.1.15,2013-06-28 00:03:00,
2013-06-27 19:06:00,85.0,68.6,29.77,NW,321,10.0,14.0,58,0.00,,,0.02,264,Wunderground v.1.15,2013-06-28 00:06:00,
2013-06-27 19:08:00,84.9,68.0,29.77,WNW,291,14.0,14.0,57,0.00,,,0.02,257,Wunderground v.1.15,2013-06-28 00:08:00,
2013-06-27 19:11:00,84.8,67.4,29.77,NW,304,11.0,12.0,56,0.00,,,0.02,244,Wunderground v.1.15,2013-06-28 00:11:00,
2013-06-27 19:12:00,84.8,67.9,29.77,WNW,296,9.0,12.0,57,0.00,,,0.02,244,Wunderground v.1.15,2013-06-28 00:12:00,
2013-06-27 19:14:00,84.7,68.3,29.78,NW,306,7.0,13.0,58,0.00,,,0.02,237,Wunderground v.1.15,2013-06-28 00:14:00,
2013-06-27 19:17:00,84.6,68.2,29.77,WNW,294,9.0,13.0,58,0.00,,,0.02,225,Wunderground v.1.15,2013-06-28 00:17:00,
2013-06-27 19:19:00,84.6,68.7,29.77,NW,310,9.0,13.0,59,0.00,,,0.02,220,Wunderground v.1.15,2013-06-28 00:19:00,
2013-06-27 19:22:00,84.5,68.6,29.77,NW,309,10.0,13.0,59,0.00,,,0.02,207,Wunderground v.1.15,2013-06-28 00:22:00,
2013-06-27 19:23:00,84.5,68.6,29.77,NW,311,8.0,13.0,59,0.00,,,0.02,207,Wunderground v.1.15,2013-06-28 00:23:00,
2013-06-27 19:25:00,84.4,69.0,29.77,WNW,302,8.0,13.0,60,0.00,,,0.02,197,Wunderground v.1.15,2013-06-28 00:25:00,
2013-06-27 19:28:00,84.3,69.4,29.77,NW,314,10.0,13.0,61,0.00,,,0.02,185,Wunderground v.1.15,2013-06-28 00:28:00,
2013-06-27 19:31:00,84.2,68.8,29.77,NW,315,9.0,11.0,60,0.00,,,0.02,176,Wunderground v.1.15,2013-06-28 00:31:00,
2013-06-27 19:34:00,84.1,69.2,29.77,WNW,298,7.0,11.0,61,0.00,,,0.02,165,Wunderground v.1.15,2013-06-28 00:34:00,
2013-06-27 19:36:00,84.0,69.1,29.77,WNW,303,9.0,11.0,61,0.00,,,0.02,160,Wunderground v.1.15,2013-06-28 00:36:00,
2013-06-27 19:37:00,84.0,69.1,29.77,WNW,303,8.0,11.0,61,0.00,,,0.02,155,Wunderground v.1.15,2013-06-28 00:37:00,
2013-06-27 19:39:00,83.9,69.0,29.77,NW,306,8.0,11.0,61,0.00,,,0.02,144,Wunderground v.1.15,2013-06-28 00:39:00,
2013-06-27 19:42:00,83.8,68.9,29.77,NW,310,10.0,11.0,61,0.00,,,0.02,139,Wunderground v.1.15,2013-06-28 00:42:00,
2013-06-27 19:44:00,83.7,68.3,29.77,NW,308,9.0,11.0,60,0.00,,,0.02,127,Wunderground v.1.15,2013-06-28 00:44:00,
2013-06-27 19:45:00,83.7,68.3,29.77,NW,307,7.0,11.0,60,0.00,,,0.02,127,Wunderground v.1.15,2013-06-28 00:45:00,
2013-06-27 19:47:00,83.6,68.7,29.77,WNW,298,4.0,11.0,61,0.00,,,0.02,120,Wunderground v.1.15,2013-06-28 00:47:00,
2013-06-27 19:50:00,83.4,69.0,29.77,WNW,300,6.0,11.0,62,0.00,,,0.02,109,Wunderground v.1.15,2013-06-28 00:50:00,
2013-06-27 19:57:00,82.8,69.4,29.78,WNW,293,5.0,8.0,64,0.00,,,0.02,88,Wunderground v.1.15,2013-06-28 00:57:00,
2013-06-27 19:58:00,82.7,68.8,29.77,WNW,293,5.0,8.0,63,0.00,,,0.02,86,Wunderground v.1.15,2013-06-28 00:58:00,
2013-06-27 20:02:00,82.4,68.5,29.77,WNW,300,4.0,6.0,63,0.00,,,0.02,74,Wunderground v.1.15,2013-06-28 01:02:00,
2013-06-27 20:04:00,82.3,68.4,29.77,WNW,296,6.0,6.0,63,0.00,,,0.02,69,Wunderground v.1.15,2013-06-28 01:04:00,
2013-06-27 20:08:00,81.9,68.5,29.77,WNW,289,7.0,7.0,64,0.00,,,0.02,58,Wunderground v.1.15,2013-06-28 01:08:00,
2013-06-27 20:09:00,81.9,68.5,29.77,WNW,298,6.0,7.0,64,0.00,,,0.02,56,Wunderground v.1.15,2013-06-28 01:09:00,
2013-06-27 20:10:00,81.8,68.4,29.78,WNW,286,6.0,6.0,64,0.00,,,0.02,51,Wunderground v.1.15,2013-06-28 01:10:00,
2013-06-27 20:12:00,81.7,68.3,29.77,WNW,296,6.0,6.0,64,0.00,,,0.02,47,Wunderground v.1.15,2013-06-28 01:12:00,
2013-06-27 20:14:00,81.5,68.6,29.78,WNW,295,5.0,6.0,65,0.00,,,0.02,44,Wunderground v.1.15,2013-06-28 01:14:00,
2013-06-27 20:15:00,81.5,68.6,29.77,WNW,286,5.0,6.0,65,0.00,,,0.02,42,Wunderground v.1.15,2013-06-28 01:15:00,
2013-06-27 20:17:00,81.2,68.3,29.78,WNW,284,6.0,6.0,65,0.00,,,0.02,37,Wunderground v.1.15,2013-06-28 01:17:00,
2013-06-27 20:18:00,81.2,68.3,29.78,WNW,287,5.0,6.0,65,0.00,,,0.02,35,Wunderground v.1.15,2013-06-28 01:18:00,
2013-06-27 20:19:00,81.0,68.1,29.78,WNW,289,4.0,6.0,65,0.00,,,0.02,33,Wunderground v.1.15,2013-06-28 01:19:00,
2013-06-27 20:20:00,81.0,68.1,29.78,WNW,288,6.0,6.0,65,0.00,,,0.02,33,Wunderground v.1.15,2013-06-28 01:20:00,
2013-06-27 20:23:00,80.6,68.2,29.78,WNW,294,4.0,6.0,66,0.00,,,0.02,28,Wunderground v.1.15,2013-06-28 01:23:00,
2013-06-27 20:26:00,80.2,67.8,29.78,WNW,296,5.0,6.0,66,0.00,,,0.02,25,Wunderground v.1.15,2013-06-28 01:26:00,
2013-06-27 20:29:00,80.0,67.6,29.78,WNW,294,4.0,7.0,66,0.00,,,0.02,18,Wunderground v.1.15,2013-06-28 01:29:00,
2013-06-27 20:31:00,79.8,67.4,29.78,WNW,292,5.0,5.0,66,0.00,,,0.02,16,Wunderground v.1.15,2013-06-28 01:31:00,
2013-06-27 20:34:00,79.4,67.0,29.77,WNW,295,3.0,5.0,66,0.00,,,0.02,14,Wunderground v.1.15,2013-06-28 01:34:00,
2013-06-27 20:36:00,79.2,67.3,29.78,WNW,297,5.0,5.0,67,0.00,,,0.02,14,Wunderground v.1.15,2013-06-28 01:36:00,
2013-06-27 20:38:00,78.9,67.0,29.78,WNW,295,4.0,5.0,67,0.00,,,0.02,12,Wunderground v.1.15,2013-06-28 01:38:00,
2013-06-27 20:39:00,78.8,67.3,29.77,WNW,295,4.0,5.0,68,0.00,,,0.02,12,Wunderground v.1.15,2013-06-28 01:39:00,
2013-06-27 20:41:00,78.6,67.2,29.77,WNW,295,3.0,5.0,68,0.00,,,0.02,11,Wunderground v.1.15,2013-06-28 01:41:00,
2013-06-27 20:42:00,78.4,67.4,29.78,WNW,295,3.0,5.0,69,0.00,,,0.02,11,Wunderground v.1.15,2013-06-28 01:42:00,
2013-06-27 20:43:00,78.3,67.3,29.78,WNW,295,4.0,5.0,69,0.00,,,0.02,11,Wunderground v.1.15,2013-06-28 01:43:00,
2013-06-27 20:45:00,78.0,67.4,29.77,WNW,295,3.0,5.0,70,0.00,,,0.02,9,Wunderground v.1.15,2013-06-28 01:45:00,
2013-06-27 20:47:00,77.7,67.5,29.78,WNW,301,4.0,5.0,71,0.00,,,0.02,9,Wunderground v.1.15,2013-06-28 01:47:00,
2013-06-27 20:48:00,77.6,67.4,29.78,WNW,302,4.0,5.0,71,0.00,,,0.02,7,Wunderground v.1.15,2013-06-28 01:48:00,
2013-06-27 20:53:00,76.9,67.2,29.77,WNW,300,4.0,5.0,72,0.00,,,0.02,5,Wunderground v.1.15,2013-06-28 01:53:00,
2013-06-27 20:54:00,76.8,67.1,29.77,WNW,300,4.0,5.0,72,0.00,,,0.02,5,Wunderground v.1.15,2013-06-28 01:54:00,
2013-06-27 20:56:00,76.6,66.9,29.77,WNW,300,3.0,5.0,72,0.00,,,0.02,5,Wunderground v.1.15,2013-06-28 01:56:00,
2013-06-27 20:57:00,76.4,67.1,29.77,WNW,300,3.0,5.0,73,0.00,,,0.02,5,Wunderground v.1.15,2013-06-28 01:57:00,
2013-06-27 20:59:00,76.3,67.0,29.77,WNW,298,3.0,5.0,73,0.00,,,0.02,0,Wunderground v.1.15,2013-06-28 01:59:00,
2013-06-27 21:00:00,76.2,67.3,29.77,WNW,298,3.0,4.0,74,0.00,,,0.02,0,Wunderground v.1.15,2013-06-28 02:00:00,
2013-06-27 21:01:00,76.1,67.2,29.77,WNW,298,4.0,4.0,74,0.00,,,0.02,0,Wunderground v.1.15,2013-06-28 02:01:00,
2013-06-27 21:03:00,75.9,67.0,29.77,WNW,298,3.0,4.0,74,0.00,,,0.02,0,Wunderground v.1.15,2013-06-28 02:03:00,
2013-06-27 21:05:00,75.8,66.9,29.77,WNW,298,2.0,4.0,74,0.00,,,0.02,0,Wunderground v.1.15,2013-06-28 02:05:00,
2013-06-27 21:09:00,75.5,67.0,29.77,WNW,300,4.0,4.0,75,0.00,,,0.02,0,Wunderground v.1.15,2013-06-28 02:09:00,
2013-06-27 21:10:00,75.3,66.8,29.77,WNW,301,4.0,4.0,75,0.00,,,0.02,0,Wunderground v.1.15,2013-06-28 02:10:00,
2013-06-27 21:11:00,75.2,66.7,29.77,WNW,303,4.0,4.0,75,0.00,,,0.02,0,Wunderground v.1.15,2013-06-28 02:11:00,
2013-06-27 21:15:00,74.9,66.4,29.77,WNW,301,4.0,5.0,75,0.00,,,0.02,0,Wunderground v.1.15,2013-06-28 02:15:00,
2013-06-27 21:16:00,74.9,66.4,29.77,NW,309,3.0,5.0,75,0.00,,,0.02,0,Wunderground v.1.15,2013-06-28 02:16:00,
2013-06-27 21:18:00,74.8,66.3,29.77,NW,308,4.0,5.0,75,0.00,,,0.02,0,Wunderground v.1.15,2013-06-28 02:18:00,
2013-06-27 21:21:00,74.5,66.4,29.78,NW,305,4.0,5.0,76,0.00,,,0.02,0,Wunderground v.1.15,2013-06-28 02:21:00,
2013-06-27 21:23:00,74.3,66.2,29.78,WNW,302,5.0,6.0,76,0.00,,,0.02,0,Wunderground v.1.15,2013-06-28 02:23:00,
2013-06-27 21:24:00,74.3,66.2,29.78,WNW,301,4.0,6.0,76,0.00,,,0.02,0,Wunderground v.1.15,2013-06-28 02:24:00,
2013-06-27 21:26:00,74.2,65.8,29.78,WNW,303,4.0,6.0,75,0.00,,,0.02,0,Wunderground v.1.15,2013-06-28 02:26:00,
2013-06-27 21:29:00,74.1,66.0,29.77,NW,304,3.0,6.0,76,0.00,,,0.02,0,Wunderground v.1.15,2013-06-28 02:29:00,
2013-06-27 21:30:00,74.1,66.0,29.77,NW,304,4.0,4.0,76,0.00,,,0.02,0,Wunderground v.1.15,2013-06-28 02:30:00,
2013-06-27 21:31:00,74.0,66.0,29.78,NW,305,2.0,4.0,76,0.00,,,0.02,0,Wunderground v.1.15,2013-06-28 02:31:00,
2013-06-27 21:33:00,73.9,65.9,29.78,NW,305,2.0,4.0,76,0.00,,,0.02,0,Wunderground v.1.15,2013-06-28 02:33:00,
2013-06-27 21:35:00,73.9,65.9,29.78,NW,305,3.0,4.0,76,0.00,,,0.02,0,Wunderground v.1.15,2013-06-28 02:35:00,
2013-06-27 21:36:00,73.8,65.8,29.78,NW,305,4.0,4.0,76,0.00,,,0.02,0,Wunderground v.1.15,2013-06-28 02:36:00,
2013-06-27 21:41:00,73.6,65.9,29.78,NW,306,3.0,4.0,77,0.00,,,0.02,0,Wunderground v.1.15,2013-06-28 02:41:00,
2013-06-27 21:42:00,73.6,65.9,29.78,NW,306,3.0,4.0,77,0.00,,,0.02,0,Wunderground v.1.15,2013-06-28 02:42:00,
2013-06-27 21:44:00,73.5,65.8,29.78,NW,308,3.0,5.0,77,0.00,,,0.02,0,Wunderground v.1.15,2013-06-28 02:44:00,
2013-06-27 21:46:00,73.3,66.0,29.78,NW,309,4.0,5.0,78,0.00,,,0.02,0,Wunderground v.1.15,2013-06-28 02:46:00,
2013-06-27 21:47:00,73.3,66.0,29.78,NW,309,4.0,5.0,78,0.00,,,0.02,0,Wunderground v.1.15,2013-06-28 02:47:00,
2013-06-27 21:49:00,73.1,65.8,29.79,NW,309,4.0,5.0,78,0.00,,,0.02,0,Wunderground v.1.15,2013-06-28 02:49:00,
2013-06-27 21:53:00,72.7,65.4,29.78,NW,310,3.0,4.0,78,0.00,,,0.02,0,Wunderground v.1.15,2013-06-28 02:53:00,
2013-06-27 21:55:00,72.5,65.2,29.79,WNW,303,5.0,5.0,78,0.00,,,0.02,0,Wunderground v.1.15,2013-06-28 02:55:00,
2013-06-27 21:56:00,72.5,65.6,29.79,NW,311,3.0,5.0,79,0.00,,,0.02,0,Wunderground v.1.15,2013-06-28 02:56:00,
2013-06-27 22:01:00,72.5,65.2,29.79,WNW,291,3.0,4.0,78,0.00,,,0.02,0,Wunderground v.1.15,2013-06-28 03:01:00,
2013-06-27 22:02:00,72.6,65.0,29.79,WNW,291,4.0,4.0,77,0.00,,,0.02,0,Wunderground v.1.15,2013-06-28 03:02:00,
2013-06-27 22:06:00,72.8,65.2,29.80,WNW,290,3.0,4.0,77,0.00,,,0.02,0,Wunderground v.1.15,2013-06-28 03:06:00,
2013-06-27 22:09:00,72.9,64.9,29.80,WNW,294,4.0,4.0,76,0.00,,,0.02,0,Wunderground v.1.15,2013-06-28 03:09:00,
2013-06-27 22:11:00,72.9,64.9,29.80,WNW,296,1.0,4.0,76,0.00,,,0.02,0,Wunderground v.1.15,2013-06-28 03:11:00,
2013-06-27 22:14:00,72.8,65.2,29.80,WNW,296,3.0,4.0,77,0.00,,,0.02,0,Wunderground v.1.15,2013-06-28 03:14:00,
2013-06-27 22:16:00,72.7,65.1,29.80,WNW,297,3.0,4.0,77,0.00,,,0.02,0,Wunderground v.1.15,2013-06-28 03:16:00,
2013-06-27 22:17:00,72.7,65.1,29.80,WNW,297,4.0,4.0,77,0.00,,,0.02,0,Wunderground v.1.15,2013-06-28 03:17:00,
2013-06-27 22:18:00,72.6,65.0,29.80,WNW,297,2.0,4.0,77,0.00,,,0.02,0,Wunderground v.1.15,2013-06-28 03:18:00,
2013-06-27 22:20:00,72.5,64.9,29.80,WNW,297,2.0,3.0,77,0.00,,,0.02,0,Wunderground v.1.15,2013-06-28 03:20:00,
2013-06-27 22:22:00,72.4,64.8,29.81,WNW,297,2.0,3.0,77,0.00,,,0.02,0,Wunderground v.1.15,2013-06-28 03:22:00,
2013-06-27 22:24:00,72.3,64.7,29.81,WNW,295,4.0,4.0,77,0.00,,,0.02,0,Wunderground v.1.15,2013-06-28 03:24:00,
2013-06-27 22:27:00,72.2,64.6,29.81,WNW,290,3.0,5.0,77,0.00,,,0.02,0,Wunderground v.1.15,2013-06-28 03:27:00,
2013-06-27 22:29:00,72.2,64.6,29.81,WNW,290,5.0,5.0,77,0.00,,,0.02,0,Wunderground v.1.15,2013-06-28 03:29:00,
2013-06-27 22:32:00,72.2,64.6,29.81,WNW,294,3.0,3.0,77,0.00,,,0.02,0,Wunderground v.1.15,2013-06-28 03:32:00,
2013-06-27 22:34:00,72.2,64.6,29.81,WNW,294,3.0,4.0,77,0.00,,,0.02,0,Wunderground v.1.15,2013-06-28 03:34:00,
2013-06-27 22:37:00,72.1,64.9,29.81,WNW,296,2.0,5.0,78,0.00,,,0.02,0,Wunderground v.1.15,2013-06-28 03:37:00,
2013-06-27 22:39:00,72.0,64.8,29.81,WNW,294,3.0,5.0,78,0.00,,,0.02,0,Wunderground v.1.15,2013-06-28 03:39:00,
2013-06-27 22:40:00,72.0,64.8,29.81,WNW,294,2.0,3.0,78,0.00,,,0.02,0,Wunderground v.1.15,2013-06-28 03:40:00,
2013-06-27 22:43:00,71.9,64.7,29.81,WNW,294,1.0,3.0,78,0.00,,,0.02,0,Wunderground v.1.15,2013-06-28 03:43:00,
2013-06-27 22:45:00,71.8,64.6,29.81,WNW,294,1.0,3.0,78,0.00,,,0.02,0,Wunderground v.1.15,2013-06-28 03:45:00,
2013-06-27 22:46:00,71.8,64.6,29.81,WNW,294,2.0,3.0,78,0.00,,,0.02,0,Wunderground v.1.15,2013-06-28 03:46:00,
2013-06-27 22:50:00,71.4,64.5,29.81,WNW,294,2.0,2.0,79,0.00,,,0.02,0,Wunderground v.1.15,2013-06-28 03:50:00,
2013-06-27 22:52:00,71.2,64.7,29.81,WNW,294,2.0,2.0,80,0.00,,,0.02,0,Wunderground v.1.15,2013-06-28 03:52:00,
2013-06-27 22:54:00,71.0,64.5,29.81,WNW,294,2.0,2.0,80,0.00,,,0.02,0,Wunderground v.1.15,2013-06-28 03:54:00,
2013-06-27 22:56:00,70.9,64.4,29.81,WNW,294,2.0,2.0,80,0.00,,,0.02,0,Wunderground v.1.15,2013-06-28 03:56:00,
2013-06-27 22:57:00,70.9,64.4,29.81,WNW,294,1.0,2.0,80,0.00,,,0.02,0,Wunderground v.1.15,2013-06-28 03:57:00,
2013-06-27 23:00:00,70.9,64.4,29.81,WNW,294,2.0,2.0,80,0.00,,,0.02,0,Wunderground v.1.15,2013-06-28 04:00:00,
2013-06-27 23:01:00,70.9,64.4,29.81,WNW,294,2.0,2.0,80,0.00,,,0.02,0,Wunderground v.1.15,2013-06-28 04:01:00,
2013-06-27 23:02:00,70.8,64.7,29.81,WNW,294,2.0,2.0,81,0.00,,,0.02,0,Wunderground v.1.15,2013-06-28 04:02:00,
2013-06-27 23:07:00,70.6,64.5,29.81,WNW,294,1.0,2.0,81,0.00,,,0.02,0,Wunderground v.1.15,2013-06-28 04:07:00,
2013-06-27 23:08:00,70.6,64.8,29.81,WNW,294,2.0,2.0,82,0.00,,,0.02,0,Wunderground v.1.15,2013-06-28 04:08:00,
2013-06-27 23:09:00,70.5,64.7,29.81,WNW,294,1.0,2.0,82,0.00,,,0.02,0,Wunderground v.1.15,2013-06-28 04:09:00,
2013-06-27 23:13:00,70.4,64.6,29.81,WNW,294,3.0,3.0,82,0.00,,,0.02,0,Wunderground v.1.15,2013-06-28 04:13:00,
2013-06-27 23:15:00,70.3,64.5,29.81,WNW,286,2.0,3.0,82,0.00,,,0.02,0,Wunderground v.1.15,2013-06-28 04:15:00,
2013-06-27 23:16:00,70.3,64.5,29.82,WNW,284,2.0,3.0,82,0.00,,,0.02,0,Wunderground v.1.15,2013-06-28 04:16:00,
2013-06-27 23:18:00,70.4,64.6,29.81,West,275,3.0,4.0,82,0.00,,,0.02,0,Wunderground v.1.15,2013-06-28 04:18:00,
2013-06-27 23:19:00,70.4,64.6,29.81,West,275,3.0,4.0,82,0.00,,,0.02,0,Wunderground v.1.15,2013-06-28 04:19:00,
2013-06-27 23:20:00,70.5,64.7,29.81,West,274,4.0,4.0,82,0.00,,,0.02,0,Wunderground v.1.15,2013-06-28 04:20:00,
2013-06-27 23:21:00,70.6,64.8,29.81,West,275,4.0,4.0,82,0.00,,,0.02,0,Wunderground v.1.15,2013-06-28 04:21:00,
2013-06-27 23:24:00,70.6,64.8,29.81,West,273,4.0,5.0,82,0.00,,,0.02,0,Wunderground v.1.15,2013-06-28 04:24:00,
2013-06-27 23:26:00,70.7,64.9,29.81,West,275,5.0,5.0,82,0.00,,,0.02,0,Wunderground v.1.15,2013-06-28 04:26:00,
2013-06-27 23:27:00,70.7,64.9,29.81,West,273,5.0,5.0,82,0.00,,,0.02,0,Wunderground v.1.15,2013-06-28 04:27:00,
2013-06-27 23:29:00,70.7,64.9,29.81,West,275,4.0,5.0,82,0.00,,,0.02,0,Wunderground v.1.15,2013-06-28 04:29:00,
2013-06-27 23:32:00,70.7,64.9,29.81,West,274,5.0,5.0,82,0.00,,,0.02,0,Wunderground v.1.15,2013-06-28 04:32:00,
2013-06-27 23:34:00,70.6,65.2,29.81,WNW,284,5.0,5.0,83,0.00,,,0.02,0,Wunderground v.1.15,2013-06-28 04:34:00,
2013-06-27 23:35:00,70.6,65.2,29.81,West,281,3.0,5.0,83,0.00,,,0.02,0,Wunderground v.1.15,2013-06-28 04:35:00,
2013-06-27 23:38:00,70.4,65.0,29.81,WNW,285,4.0,5.0,83,0.00,,,0.02,0,Wunderground v.1.15,2013-06-28 04:38:00,
2013-06-27 23:40:00,70.3,64.9,29.81,West,279,4.0,4.0,83,0.00,,,0.02,0,Wunderground v.1.15,2013-06-28 04:40:00,
2013-06-27 23:41:00,70.3,64.9,29.81,West,280,3.0,4.0,83,0.00,,,0.02,0,Wunderground v.1.15,2013-06-28 04:41:00,
2013-06-27 23:42:00,70.2,65.1,29.81,WNW,288,4.0,4.0,84,0.00,,,0.02,0,Wunderground v.1.15,2013-06-28 04:42:00,
2013-06-27 23:44:00,70.1,65.0,29.81,WNW,291,3.0,4.0,84,0.00,,,0.02,0,Wunderground v.1.15,2013-06-28 04:44:00,
2013-06-27 23:46:00,69.9,64.8,29.81,WNW,291,2.0,4.0,84,0.00,,,0.02,0,Wunderground v.1.15,2013-06-28 04:46:00,
2013-06-27 23:47:00,69.9,64.8,29.81,WNW,291,3.0,4.0,84,0.00,,,0.02,0,Wunderground v.1.15,2013-06-28 04:47:00,
2013-06-27 23:48:00,69.9,64.8,29.81,WNW,291,2.0,4.0,84,0.00,,,0.02,0,Wunderground v.1.15,2013-06-28 04:48:00,
2013-06-27 23:50:00,69.8,64.7,29.81,WNW,291,3.0,3.0,84,0.00,,,0.02,0,Wunderground v.1.15,2013-06-28 04:50:00,
2013-06-27 23:52:00,69.7,64.6,29.81,WNW,291,2.0,4.0,84,0.00,,,0.02,0,Wunderground v.1.15,2013-06-28 04:52:00,
2013-06-27 23:55:00,69.7,65.0,29.81,WNW,293,4.0,4.0,85,0.00,,,0.02,0,Wunderground v.1.15,2013-06-28 04:55:00,
2013-06-27 23:57:00,69.7,65.0,29.81,WNW,292,3.0,4.0,85,0.00,,,0.02,0,Wunderground v.1.15,2013-06-28 04:57:00,
2013-06-27 23:58:00,69.6,64.9,29.80,WNW,292,3.0,4.0,85,0.00,,,0.00,0,Wunderground v.1.15,2013-06-28 04:58:00,
2013-06-27 23:59:00,69.6,64.9,29.81,WNW,292,3.0,4.0,85,0.00,,,0.00,0,Wunderground v.1.15,2013-06-28 04:59:00,